KLM274 LQSA-CYYZ

Flight info

Callsign KLM274
Flight time 9h 3m
Altitude 38000
Route BOSNA DCT OKSIG DCT GORPA DCT NIPEL DCT UMVEG DCT IRBIR DCT KUNOD DCT EDISA DCT PITES DCT REMBA M624 BUB L608 DENUT L610 GILDA M14 WESUL L980 LAM L610 HEMEL T420 TNT UQ4 WAL L10 KELLY DCT LUTOV DCT PIKIL/M084F390 DCT 57N020W 58N030W 58N040W 56N050W DCT JANJO/N0490F400 DCT ALKOB DCT YBC DCT POLTY IMEBA9
Aircraft A359/H-SDE2E3GHIJ3J4J5LM1ORWXY/LB1D1

Departure

Time 2026-04-17 20:36
Airport Sarajevo International Airport (LQSA)

Arrival

Time 2026-04-18 05:40
Airport Toronto Pearson International Airport (CYYZ)
Time Latitude Longitude Altitude Speed Heading
2026-04-17 20:10 43.82553 18.33555 1693 ft 0 kts 28°
2026-04-17 20:29 43.82546 18.33550 1684 ft 4 kts 30°
2026-04-17 20:29 43.82524 18.33529 1694 ft 4 kts 47°
2026-04-17 20:29 43.82510 18.33500 1687 ft 4 kts 88°
2026-04-17 20:29 43.82512 18.33482 1686 ft 5 kts 117°
2026-04-17 20:31 43.82512 18.33483 1683 ft 0 kts 117°
2026-04-17 20:32 43.82503 18.33509 1695 ft 10 kts 114°
2026-04-17 20:32 43.82443 18.33668 1695 ft 25 kts 119°
2026-04-17 20:32 43.82378 18.33858 1698 ft 19 kts 114°
2026-04-17 20:32 43.82330 18.33994 1703 ft 14 kts 121°
2026-04-17 20:33 43.82283 18.34093 1704 ft 10 kts 121°
2026-04-17 20:33 43.82263 18.34147 1705 ft 1 kts 117°
2026-04-17 20:34 43.82254 18.34171 1707 ft 12 kts 117°
2026-04-17 20:34 43.82179 18.34365 1710 ft 31 kts 118°
2026-04-17 20:34 43.82132 18.34489 1709 ft 0 kts 118°
2026-04-17 20:34 43.82118 18.34524 1710 ft 18 kts 117°
2026-04-17 20:35 43.82012 18.34620 1714 ft 17 kts 185°
2026-04-17 20:35 43.81939 18.34527 1710 ft 15 kts 272°
2026-04-17 20:35 43.81990 18.34388 1711 ft 28 kts 298°
2026-04-17 20:35 43.82191 18.33860 1697 ft 94 kts 298°
2026-04-17 20:36 43.82592 18.32812 1682 ft 150 kts 296°
2026-04-17 20:36 43.83112 18.31335 1831 ft 184 kts 296°
2026-04-17 20:36 43.83733 18.29623 2052 ft 211 kts 298°
2026-04-17 20:36 43.84529 18.27748 2331 ft 239 kts 308°
2026-04-17 20:37 43.85913 18.26374 2491 ft 261 kts 344°
2026-04-17 20:37 43.87733 18.26211 3142 ft 263 kts
2026-04-17 20:37 43.89514 18.26295 4120 ft 253 kts
2026-04-17 20:37 43.91253 18.26208 5090 ft 244 kts 359°
2026-04-17 20:38 43.92917 18.26017 5975 ft 238 kts 357°
2026-04-17 20:38 43.94561 18.25765 6768 ft 238 kts 356°
2026-04-17 20:38 43.96211 18.25489 7414 ft 243 kts 356°
2026-04-17 20:38 43.97949 18.25283 7867 ft 256 kts 358°
2026-04-17 20:39 43.99742 18.25088 8560 ft 260 kts 358°
2026-04-17 20:39 44.01552 18.24874 9300 ft 263 kts 357°
2026-04-17 20:39 44.03393 18.24644 10041 ft 267 kts 356°
2026-04-17 20:39 44.05250 18.24338 10699 ft 272 kts 350°
2026-04-17 20:40 44.07018 18.23356 11316 ft 281 kts 329°
2026-04-17 20:40 44.08514 18.21491 11660 ft 300 kts 315°
2026-04-17 20:40 44.09906 18.19270 12010 ft 316 kts 313°
2026-04-17 20:40 44.11370 18.16895 12373 ft 330 kts 313°
2026-04-17 20:41 44.12906 18.14427 12729 ft 345 kts 313°
2026-04-17 20:41 44.14509 18.11871 13189 ft 355 kts 313°
2026-04-17 20:41 44.16145 18.09271 13761 ft 361 kts 313°
2026-04-17 20:41 44.17813 18.06619 14308 ft 366 kts 313°
2026-04-17 20:42 44.19495 18.03950 14934 ft 368 kts 313°
2026-04-17 20:42 44.21189 18.01261 15572 ft 370 kts 313°
2026-04-17 20:42 44.22887 17.98567 16229 ft 372 kts 313°
2026-04-17 20:42 44.24596 17.95851 16814 ft 374 kts 313°
2026-04-17 20:43 44.26319 17.93110 17471 ft 376 kts 313°
2026-04-17 20:43 44.28045 17.90367 18122 ft 378 kts 313°
2026-04-17 20:43 44.29783 17.87598 18707 ft 380 kts 313°
2026-04-17 20:43 44.31531 17.84812 19208 ft 383 kts 313°
2026-04-17 20:44 44.33286 17.82012 19830 ft 384 kts 313°
2026-04-17 20:44 44.35060 17.79180 20363 ft 388 kts 313°
2026-04-17 20:44 44.36841 17.76334 20911 ft 391 kts 313°
2026-04-17 20:44 44.38633 17.73469 21531 ft 392 kts 313°
2026-04-17 20:45 44.40431 17.70588 22156 ft 394 kts 313°
2026-04-17 20:45 44.42245 17.67678 22706 ft 397 kts 313°
2026-04-17 20:45 44.44060 17.64761 23280 ft 400 kts 313°
2026-04-17 20:45 44.45891 17.61815 23783 ft 402 kts 313°
2026-04-17 20:46 44.47733 17.58847 24256 ft 405 kts 313°
2026-04-17 20:46 44.49587 17.55861 24682 ft 408 kts 313°
2026-04-17 20:46 44.51453 17.52852 25148 ft 410 kts 313°
2026-04-17 20:46 44.53331 17.49820 25583 ft 413 kts 313°
2026-04-17 20:47 44.55214 17.46776 26046 ft 415 kts 313°
2026-04-17 20:47 44.57108 17.43712 26514 ft 417 kts 313°
2026-04-17 20:47 44.59019 17.40617 26966 ft 420 kts 313°
2026-04-17 20:47 44.60930 17.37517 27429 ft 422 kts 313°
2026-04-17 20:48 44.62856 17.34389 27896 ft 424 kts 313°
2026-04-17 20:48 44.64783 17.31256 28360 ft 426 kts 313°
2026-04-17 20:48 44.66720 17.28103 28821 ft 427 kts 313°
2026-04-17 20:48 44.68668 17.24931 29197 ft 430 kts 314°
2026-04-17 20:49 44.70632 17.21729 29492 ft 434 kts 314°
2026-04-17 20:49 44.72612 17.18498 29883 ft 436 kts 314°
2026-04-17 20:49 44.74590 17.15265 30276 ft 438 kts 314°
2026-04-17 20:49 44.76583 17.12002 30587 ft 440 kts 314°
2026-04-17 20:50 44.78582 17.08726 30892 ft 442 kts 314°
2026-04-17 20:50 44.80583 17.05444 31176 ft 444 kts 314°
2026-04-17 20:50 44.82603 17.02128 31483 ft 446 kts 314°
2026-04-17 20:50 44.84623 16.98803 31740 ft 447 kts 313°
2026-04-17 20:51 44.86617 16.95444 32066 ft 447 kts 313°
2026-04-17 20:51 44.88589 16.92049 32389 ft 448 kts 312°
2026-04-17 20:51 44.90550 16.88644 32763 ft 447 kts 312°
2026-04-17 20:51 44.92506 16.85242 33245 ft 443 kts 313°
2026-04-17 20:52 44.94442 16.81881 33693 ft 441 kts 313°
2026-04-17 20:52 44.96376 16.78531 34009 ft 440 kts 313°
2026-04-17 20:52 44.98311 16.75185 34281 ft 440 kts 313°
2026-04-17 20:52 45.00248 16.71838 34531 ft 440 kts 313°
2026-04-17 20:53 45.02183 16.68491 34762 ft 440 kts 312°
2026-04-17 20:53 45.04119 16.65142 34876 ft 442 kts 312°
2026-04-17 20:53 45.06074 16.61754 34990 ft 444 kts 312°
2026-04-17 20:53 45.08024 16.58369 35247 ft 443 kts 312°
2026-04-17 20:54 45.09945 16.55028 35491 ft 443 kts 311°
2026-04-17 20:54 45.11887 16.51648 35687 ft 443 kts 311°
2026-04-17 20:54 45.13830 16.48261 35883 ft 444 kts 311°
2026-04-17 20:54 45.15776 16.44867 36074 ft 444 kts 311°
2026-04-17 20:55 45.17721 16.41468 36258 ft 444 kts 311°
2026-04-17 20:55 45.19662 16.38071 36518 ft 443 kts 311°
2026-04-17 20:55 45.23556 16.31250 36723 ft 446 kts 311°
2026-04-17 20:56 45.25505 16.27830 36933 ft 446 kts 311°
2026-04-17 20:56 45.27457 16.24400 37108 ft 446 kts 311°
2026-04-17 20:56 45.29402 16.20976 37263 ft 446 kts 310°
2026-04-17 20:56 45.31349 16.17546 37419 ft 446 kts 310°
2026-04-17 20:57 45.33298 16.14110 37571 ft 446 kts 310°
2026-04-17 20:57 45.35241 16.10678 37721 ft 447 kts 310°
2026-04-17 20:57 45.37191 16.07230 37844 ft 447 kts 310°
2026-04-17 20:57 45.39138 16.03783 37972 ft 447 kts 310°
2026-04-17 20:58 45.41090 16.00324 38083 ft 448 kts 310°
2026-04-17 20:58 45.43042 15.96859 38126 ft 450 kts 310°
2026-04-17 20:58 45.46982 15.89855 38126 ft 456 kts 310°
2026-04-17 20:59 45.50958 15.82768 38123 ft 460 kts 310°
2026-04-17 20:59 45.54281 15.76832 38131 ft 461 kts 310°
2026-04-17 21:00 45.58288 15.69657 38133 ft 463 kts 310°
2026-04-17 21:00 45.62301 15.62453 38133 ft 464 kts 310°
2026-04-17 21:01 45.66311 15.55235 38130 ft 464 kts 310°
2026-04-17 21:01 45.70320 15.48000 38150 ft 464 kts 310°
2026-04-17 21:02 45.74337 15.40735 38149 ft 465 kts 310°
2026-04-17 21:02 45.78316 15.33523 38153 ft 465 kts 310°
2026-04-17 21:03 45.82364 15.26219 38151 ft 465 kts 310°
2026-04-17 21:03 45.86377 15.18966 38149 ft 465 kts 310°
2026-04-17 21:04 45.90394 15.11683 38144 ft 465 kts 310°
2026-04-17 21:04 45.94398 15.04403 38147 ft 465 kts 310°
2026-04-17 21:05 45.98381 14.97143 38161 ft 465 kts 310°
2026-04-17 21:05 46.02403 14.89790 38152 ft 464 kts 310°
2026-04-17 21:06 46.06383 14.82497 38152 ft 463 kts 310°
2026-04-17 21:06 46.10321 14.75260 38168 ft 462 kts 310°
2026-04-17 21:07 46.14278 14.67972 38175 ft 462 kts 310°
2026-04-17 21:07 46.18239 14.60657 38182 ft 462 kts 310°
2026-04-17 21:08 46.22190 14.53342 38184 ft 462 kts 310°
2026-04-17 21:08 46.26137 14.46014 38193 ft 461 kts 310°
2026-04-17 21:09 46.30063 14.38707 38185 ft 460 kts 310°
2026-04-17 21:09 46.33983 14.31391 38179 ft 460 kts 310°
2026-04-17 21:10 46.37897 14.24066 38175 ft 459 kts 310°
2026-04-17 21:10 46.41794 14.16753 38156 ft 459 kts 310°
2026-04-17 21:11 46.45696 14.09416 38177 ft 460 kts 309°
2026-04-17 21:11 46.49366 14.01813 38165 ft 463 kts 302°
2026-04-17 21:12 46.52414 13.93539 38167 ft 465 kts 300°
2026-04-17 21:12 46.55341 13.85166 38171 ft 465 kts 299°
2026-04-17 21:13 46.58246 13.76776 38163 ft 464 kts 299°
2026-04-17 21:13 46.61148 13.68404 38163 ft 464 kts 299°
2026-04-17 21:14 46.64061 13.60005 38159 ft 464 kts 299°
2026-04-17 21:14 46.66960 13.51623 38168 ft 464 kts 299°
2026-04-17 21:15 46.69861 13.43208 38166 ft 465 kts 299°
2026-04-17 21:15 46.72761 13.34770 38165 ft 466 kts 299°
2026-04-17 21:16 46.75637 13.26373 38159 ft 467 kts 299°
2026-04-17 21:16 46.78521 13.17921 38184 ft 464 kts 298°
2026-04-17 21:17 46.81394 13.09473 38174 ft 465 kts 298°
2026-04-17 21:17 46.84271 13.00999 38148 ft 467 kts 298°
2026-04-17 21:18 46.87149 12.92491 38187 ft 466 kts 298°
2026-04-17 21:18 46.90014 12.83987 38168 ft 466 kts 298°
2026-04-17 21:19 46.92873 12.75469 38186 ft 467 kts 298°
2026-04-17 21:19 46.95738 12.66910 38189 ft 469 kts 298°
2026-04-17 21:20 46.98602 12.58326 38188 ft 470 kts 298°
2026-04-17 21:20 47.01463 12.49723 38194 ft 470 kts 298°
2026-04-17 21:21 47.04320 12.41097 38193 ft 469 kts 298°
2026-04-17 21:21 47.07187 12.32420 38191 ft 470 kts 297°
2026-04-17 21:22 47.10010 12.23848 38189 ft 470 kts 297°
2026-04-17 21:22 47.12844 12.15210 38192 ft 470 kts 297°
2026-04-17 21:23 47.15677 12.06550 38192 ft 471 kts 297°
2026-04-17 21:23 47.18505 11.97873 38200 ft 471 kts 297°
2026-04-17 21:24 47.21455 11.89296 38196 ft 469 kts 303°
2026-04-17 21:24 47.24972 11.81211 38195 ft 468 kts 305°
2026-04-17 21:25 47.28576 11.73232 38203 ft 468 kts 305°
2026-04-17 21:25 47.32192 11.65253 38197 ft 468 kts 305°
2026-04-17 21:26 47.35793 11.57261 38206 ft 468 kts 305°
2026-04-17 21:26 47.39381 11.49252 38209 ft 468 kts 305°
2026-04-17 21:27 47.42962 11.41233 38208 ft 468 kts 305°
2026-04-17 21:27 47.46538 11.33202 38209 ft 468 kts 305°
2026-04-17 21:28 47.50115 11.25146 38202 ft 468 kts 304°
2026-04-17 21:28 47.53685 11.17082 38201 ft 468 kts 304°
2026-04-17 21:29 47.57362 11.09133 38212 ft 468 kts 308°
2026-04-17 21:29 47.61350 11.01516 38208 ft 467 kts 309°
2026-04-17 21:30 47.65379 10.93952 38213 ft 467 kts 309°
2026-04-17 21:30 47.69404 10.86390 38219 ft 468 kts 309°
2026-04-17 21:31 47.73430 10.78791 38211 ft 468 kts 309°
2026-04-17 21:31 47.77445 10.71183 38210 ft 468 kts 309°
2026-04-17 21:32 47.81458 10.63554 38210 ft 468 kts 309°
2026-04-17 21:32 47.85460 10.55924 38208 ft 468 kts 309°
2026-04-17 21:33 47.89464 10.48271 38206 ft 468 kts 309°
2026-04-17 21:33 47.93463 10.40603 38200 ft 469 kts 309°
2026-04-17 21:34 47.97459 10.32923 38209 ft 469 kts 308°
2026-04-17 21:35 48.03443 10.21380 38208 ft 468 kts 308°
2026-04-17 21:35 48.07426 10.13669 38207 ft 468 kts 308°
2026-04-17 21:36 48.11404 10.05946 38181 ft 468 kts 308°
2026-04-17 21:36 48.15375 9.98214 38183 ft 468 kts 308°
2026-04-17 21:37 48.19335 9.90480 38182 ft 469 kts 308°
2026-04-17 21:37 48.23301 9.82716 38193 ft 469 kts 308°
2026-04-17 21:38 48.27235 9.74991 38186 ft 468 kts 308°
2026-04-17 21:38 48.31208 9.67167 38187 ft 468 kts 308°
2026-04-17 21:39 48.35158 9.59373 38190 ft 468 kts 308°
2026-04-17 21:39 48.39084 9.51648 38190 ft 468 kts 308°
2026-04-17 21:40 48.43012 9.43898 38189 ft 460 kts 307°
2026-04-17 21:40 48.46845 9.36310 38194 ft 454 kts 307°
2026-04-17 21:41 48.50666 9.28726 38193 ft 454 kts 307°
2026-04-17 21:41 48.54476 9.21140 38185 ft 454 kts 307°
2026-04-17 21:42 48.58282 9.13543 38183 ft 454 kts 307°
2026-04-17 21:42 48.62093 9.05913 38184 ft 455 kts 307°
2026-04-17 21:43 48.65905 8.98258 38185 ft 456 kts 307°
2026-04-17 21:43 48.69710 8.90597 38187 ft 456 kts 307°
2026-04-17 21:44 48.73508 8.82928 38184 ft 455 kts 307°
2026-04-17 21:44 48.76669 8.76531 38182 ft 455 kts 307°
2026-04-17 21:45 48.80455 8.68845 38182 ft 456 kts 306°
2026-04-17 21:45 48.84245 8.61130 38183 ft 456 kts 306°
2026-04-17 21:46 48.88031 8.53401 38181 ft 456 kts 306°
2026-04-17 21:46 48.91814 8.45655 38182 ft 456 kts 306°
2026-04-17 21:47 48.95584 8.37915 38180 ft 456 kts 306°
2026-04-17 21:47 48.99357 8.30147 38179 ft 456 kts 306°
2026-04-17 21:48 49.02902 8.22144 38181 ft 455 kts 302°
2026-04-17 21:48 49.06272 8.13958 38181 ft 455 kts 302°
2026-04-17 21:49 49.09655 8.05801 38177 ft 455 kts 302°
2026-04-17 21:49 49.13078 7.97653 38179 ft 455 kts 302°
2026-04-17 21:50 49.16508 7.89512 38177 ft 457 kts 302°
2026-04-17 21:50 49.19944 7.81334 38178 ft 457 kts 302°
2026-04-17 21:51 49.23371 7.73147 38179 ft 457 kts 302°
2026-04-17 21:51 49.26794 7.64941 38176 ft 457 kts 302°
2026-04-17 21:52 49.30212 7.56726 38171 ft 457 kts 301°
2026-04-17 21:52 49.33625 7.48491 38195 ft 458 kts 301°
2026-04-17 21:53 49.37033 7.40246 38197 ft 458 kts 301°
2026-04-17 21:53 49.40440 7.31975 38200 ft 458 kts 301°
2026-04-17 21:54 49.43844 7.23687 38198 ft 458 kts 301°
2026-04-17 21:54 49.47238 7.15398 38204 ft 458 kts 301°
2026-04-17 21:55 49.50635 7.07073 38205 ft 460 kts 301°
2026-04-17 21:55 49.54028 6.98733 38209 ft 460 kts 300°
2026-04-17 21:56 49.57420 6.90373 38201 ft 460 kts 300°
2026-04-17 21:56 49.60808 6.81991 38191 ft 460 kts 300°
2026-04-17 21:57 49.64188 6.73605 38195 ft 460 kts 300°
2026-04-17 21:57 49.67561 6.65210 38198 ft 461 kts 300°
2026-04-17 21:58 49.70929 6.56797 38191 ft 461 kts 300°
2026-04-17 21:58 49.74769 6.48856 38207 ft 463 kts 309°
2026-04-17 21:59 49.79089 6.41457 38206 ft 464 kts 310°
2026-04-17 21:59 49.83482 6.34135 38222 ft 464 kts 310°
2026-04-17 22:00 49.87876 6.26796 38211 ft 464 kts 310°
2026-04-17 22:00 49.92250 6.19439 38211 ft 464 kts 310°
2026-04-17 22:01 49.96622 6.12050 38221 ft 464 kts 310°
2026-04-17 22:01 50.00984 6.04654 38219 ft 464 kts 310°
2026-04-17 22:02 50.05342 5.97244 38225 ft 464 kts 309°
2026-04-17 22:02 50.09696 5.89820 38222 ft 465 kts 309°
2026-04-17 22:03 50.14055 5.82366 38217 ft 466 kts 309°
2026-04-17 22:03 50.18413 5.74893 38218 ft 466 kts 309°
2026-04-17 22:04 50.22769 5.67399 38214 ft 466 kts 309°
2026-04-17 22:04 50.27121 5.59893 38213 ft 466 kts 309°
2026-04-17 22:05 50.31466 5.52377 38218 ft 466 kts 309°
2026-04-17 22:05 50.35808 5.44841 38219 ft 466 kts 309°
2026-04-17 22:06 50.40148 5.37289 38218 ft 466 kts 309°
2026-04-17 22:06 50.44455 5.29770 38215 ft 466 kts 309°
2026-04-17 22:07 50.48814 5.22138 38194 ft 466 kts 309°
2026-04-17 22:07 50.53108 5.14599 38192 ft 466 kts 309°
2026-04-17 22:08 50.57426 5.06995 38206 ft 466 kts 308°
2026-04-17 22:08 50.61740 4.99374 38204 ft 465 kts 308°
2026-04-17 22:09 50.66040 4.91755 38207 ft 465 kts 308°
2026-04-17 22:09 50.70508 4.84359 38202 ft 467 kts 312°
2026-04-17 22:10 50.75198 4.77244 38205 ft 468 kts 313°
2026-04-17 22:10 50.79875 4.70105 38215 ft 467 kts 312°
2026-04-17 22:11 50.84497 4.62887 38211 ft 467 kts 311°
2026-04-17 22:11 50.89051 4.55576 38209 ft 465 kts 307°
2026-04-17 22:12 50.92760 4.47288 38212 ft 460 kts 299°
2026-04-17 22:12 50.96124 4.38649 38210 ft 460 kts 298°
2026-04-17 22:13 50.99426 4.29950 38211 ft 460 kts 298°
2026-04-17 22:13 51.02725 4.21252 38208 ft 460 kts 298°
2026-04-17 22:14 51.06027 4.12552 38206 ft 460 kts 298°
2026-04-17 22:14 51.09328 4.03841 38205 ft 460 kts 298°
2026-04-17 22:15 51.12627 3.95105 38204 ft 460 kts 298°
2026-04-17 22:15 51.15915 3.86368 38203 ft 460 kts 298°
2026-04-17 22:16 51.19195 3.77623 38207 ft 460 kts 297°
2026-04-17 22:16 51.22393 3.68834 38202 ft 457 kts 293°
2026-04-17 22:17 51.24460 3.59340 38203 ft 452 kts 281°
2026-04-17 22:17 51.25837 3.49550 38202 ft 451 kts 279°
2026-04-17 22:18 51.27103 3.39747 38204 ft 451 kts 279°
2026-04-17 22:18 51.28411 3.29932 38211 ft 452 kts 282°
2026-04-17 22:19 51.30808 3.20662 38209 ft 453 kts 294°
2026-04-17 22:19 51.34041 3.12009 38203 ft 454 kts 298°
2026-04-17 22:20 51.37450 3.03483 38201 ft 455 kts 298°
2026-04-17 22:20 51.40843 2.94936 38200 ft 455 kts 297°
2026-04-17 22:21 51.44200 2.86352 38215 ft 454 kts 297°
2026-04-17 22:21 51.47528 2.77764 38200 ft 453 kts 297°
2026-04-17 22:22 51.50849 2.69164 38198 ft 453 kts 297°
2026-04-17 22:22 51.54166 2.60549 38192 ft 453 kts 296°
2026-04-17 22:23 51.57450 2.51998 38193 ft 453 kts 296°
2026-04-17 22:23 51.60748 2.43377 38190 ft 452 kts 296°
2026-04-17 22:24 51.64065 2.34674 38190 ft 454 kts 295°
2026-04-17 22:24 51.67341 2.26048 38190 ft 455 kts 295°
2026-04-17 22:25 51.70659 2.17289 38186 ft 455 kts 295°
2026-04-17 22:25 51.73923 2.08643 38184 ft 455 kts 295°
2026-04-17 22:26 51.77206 1.99915 38183 ft 455 kts 295°
2026-04-17 22:26 51.80482 1.91180 38204 ft 455 kts 295°
2026-04-17 22:27 51.83759 1.82403 38184 ft 457 kts 295°
2026-04-17 22:27 51.86509 1.75017 38178 ft 458 kts 295°
2026-04-17 22:28 51.89787 1.66188 38168 ft 457 kts 294°
2026-04-17 22:28 51.93059 1.57345 38166 ft 457 kts 294°
2026-04-17 22:29 51.96323 1.48492 38170 ft 457 kts 294°
2026-04-17 22:29 51.99582 1.39620 38166 ft 458 kts 294°
2026-04-17 22:30 52.02820 1.30772 38169 ft 459 kts 294°
2026-04-17 22:30 52.06094 1.21797 38160 ft 459 kts 294°
2026-04-17 22:31 52.09323 1.12913 38157 ft 460 kts 294°
2026-04-17 22:31 52.12574 1.03939 38158 ft 460 kts 294°
2026-04-17 22:32 52.15814 0.94964 38162 ft 461 kts 293°
2026-04-17 22:32 52.19063 0.85921 38153 ft 464 kts 293°
2026-04-17 22:33 52.22318 0.76838 38148 ft 464 kts 293°
2026-04-17 22:33 52.25564 0.67750 38146 ft 464 kts 293°
2026-04-17 22:34 52.28806 0.58640 38169 ft 464 kts 293°
2026-04-17 22:34 52.32043 0.49506 38148 ft 465 kts 293°
2026-04-17 22:35 52.35280 0.40339 38146 ft 466 kts 293°
2026-04-17 22:35 52.38513 0.31153 38145 ft 466 kts 293°
2026-04-17 22:36 52.41741 0.21947 38140 ft 466 kts 292°
2026-04-17 22:36 52.44959 0.12736 38134 ft 466 kts 292°
2026-04-17 22:37 52.48175 0.03496 38118 ft 466 kts 292°
2026-04-17 22:37 52.51375 -0.05734 38130 ft 465 kts 292°
2026-04-17 22:38 52.54567 -0.14971 38123 ft 464 kts 292°
2026-04-17 22:38 52.57748 -0.24216 38126 ft 465 kts 292°
2026-04-17 22:39 52.60919 -0.33463 38136 ft 465 kts 292°
2026-04-17 22:39 52.65669 -0.47382 38130 ft 465 kts 292°
2026-04-17 22:40 52.68825 -0.56669 38128 ft 464 kts 292°
2026-04-17 22:40 52.71973 -0.65972 38127 ft 464 kts 292°
2026-04-17 22:41 52.75109 -0.75274 38124 ft 464 kts 292°
2026-04-17 22:41 52.78240 -0.84595 38122 ft 465 kts 292°
2026-04-17 22:42 52.81374 -0.93961 38123 ft 465 kts 292°
2026-04-17 22:42 52.84497 -1.03328 38142 ft 466 kts 292°
2026-04-17 22:43 52.87617 -1.12728 38126 ft 467 kts 292°
2026-04-17 22:43 52.90743 -1.22174 38126 ft 467 kts 292°
2026-04-17 22:44 52.93839 -1.31566 38129 ft 467 kts 292°
2026-04-17 22:44 52.96945 -1.41024 38127 ft 467 kts 292°
2026-04-17 22:45 53.00046 -1.50506 38143 ft 467 kts 292°
2026-04-17 22:45 53.03142 -1.60016 38119 ft 469 kts 292°
2026-04-17 22:46 53.05809 -1.69826 38113 ft 462 kts 282°
2026-04-17 22:46 53.07676 -1.80039 38108 ft 461 kts 281°
2026-04-17 22:47 53.09407 -1.90293 38111 ft 461 kts 280°
2026-04-17 22:47 53.11118 -2.00574 38109 ft 461 kts 280°
2026-04-17 22:48 53.12833 -2.10859 38106 ft 462 kts 281°
2026-04-17 22:48 53.14814 -2.21114 38102 ft 470 kts 289°
2026-04-17 22:49 53.17610 -2.30990 38102 ft 472 kts 291°
2026-04-17 22:49 53.20536 -2.40795 38102 ft 473 kts 291°
2026-04-17 22:50 53.23471 -2.50613 38107 ft 473 kts 291°
2026-04-17 22:50 53.26389 -2.60472 38112 ft 474 kts 291°
2026-04-17 22:51 53.29299 -2.70380 38096 ft 476 kts 291°
2026-04-17 22:51 53.31821 -2.80554 38085 ft 473 kts 286°
2026-04-17 22:52 53.34159 -2.90827 38102 ft 472 kts 285°
2026-04-17 22:52 53.36462 -3.01123 38101 ft 472 kts 285°
2026-04-17 22:53 53.38842 -3.11307 38113 ft 475 kts 290°
2026-04-17 22:53 53.42319 -3.20802 38086 ft 480 kts 299°
2026-04-17 22:54 53.46184 -3.29969 38075 ft 481 kts 300°
2026-04-17 22:54 53.50097 -3.39085 38066 ft 481 kts 300°
2026-04-17 22:55 53.53988 -3.48226 38065 ft 481 kts 300°
2026-04-17 22:55 53.57856 -3.57395 38061 ft 481 kts 300°
2026-04-17 22:56 53.61717 -3.66594 38061 ft 481 kts 300°
2026-04-17 22:56 53.65575 -3.75809 38060 ft 481 kts 300°
2026-04-17 22:57 53.69424 -3.85059 38068 ft 482 kts 300°
2026-04-17 22:57 53.73271 -3.94335 38057 ft 483 kts 300°
2026-04-17 22:58 53.77118 -4.03638 38054 ft 483 kts 300°
2026-04-17 22:58 53.80968 -4.12979 38046 ft 483 kts 300°
2026-04-17 22:59 53.84804 -4.22310 38049 ft 484 kts 300°
2026-04-17 22:59 53.88643 -4.31698 38035 ft 485 kts 300°
2026-04-17 23:00 53.91920 -4.41569 38050 ft 478 kts 291°
2026-04-17 23:00 53.94716 -4.51798 38026 ft 478 kts 289°
2026-04-17 23:01 53.97440 -4.62119 38023 ft 479 kts 289°
2026-04-17 23:01 54.00137 -4.72378 38028 ft 479 kts 289°
2026-04-17 23:02 54.02854 -4.82710 38029 ft 479 kts 289°
2026-04-17 23:02 54.05568 -4.93052 38022 ft 479 kts 289°
2026-04-17 23:03 54.08278 -5.03424 38022 ft 479 kts 289°
2026-04-17 23:03 54.10975 -5.13800 38019 ft 479 kts 289°
2026-04-17 23:04 54.13666 -5.24199 38036 ft 479 kts 289°
2026-04-17 23:04 54.16347 -5.34611 38025 ft 480 kts 289°
2026-04-17 23:05 54.19023 -5.45051 38019 ft 480 kts 289°
2026-04-17 23:05 54.21688 -5.55492 38016 ft 480 kts 289°
2026-04-17 23:06 54.24348 -5.65965 38010 ft 480 kts 289°
2026-04-17 23:06 54.26995 -5.76438 38012 ft 480 kts 289°
2026-04-17 23:07 54.29638 -5.86942 38003 ft 480 kts 289°
2026-04-17 23:07 54.32268 -5.97448 38002 ft 480 kts 289°
2026-04-17 23:08 54.34870 -6.07888 38014 ft 480 kts 289°
2026-04-17 23:08 54.37500 -6.18492 37999 ft 480 kts 289°
2026-04-17 23:09 54.40102 -6.29031 37996 ft 480 kts 289°
2026-04-17 23:09 54.42695 -6.39586 37995 ft 480 kts 288°
2026-04-17 23:10 54.45277 -6.50148 37994 ft 479 kts 289°
2026-04-17 23:10 54.47830 -6.60642 37991 ft 478 kts 288°
2026-04-17 23:11 54.50406 -6.71282 37987 ft 478 kts 288°
2026-04-17 23:11 54.52936 -6.81784 37988 ft 478 kts 288°
2026-04-17 23:12 54.55476 -6.92376 38000 ft 478 kts 288°
2026-04-17 23:12 54.58006 -7.02983 37992 ft 479 kts 289°
2026-04-17 23:13 54.60530 -7.13615 37983 ft 480 kts 288°
2026-04-17 23:13 54.62623 -7.22468 37982 ft 480 kts 288°
2026-04-17 23:14 54.65135 -7.33145 37974 ft 480 kts 288°
2026-04-17 23:14 54.67638 -7.43834 37971 ft 480 kts 288°
2026-04-17 23:15 54.70129 -7.54527 37971 ft 480 kts 288°
2026-04-17 23:15 54.72611 -7.65237 37953 ft 480 kts 288°
2026-04-17 23:16 54.75088 -7.75977 37955 ft 481 kts 288°
2026-04-17 23:16 54.77557 -7.86738 37961 ft 481 kts 288°
2026-04-17 23:17 54.80018 -7.97520 37955 ft 481 kts 288°
2026-04-17 23:17 54.82472 -8.08317 37956 ft 481 kts 288°
2026-04-17 23:18 54.84915 -8.19130 37964 ft 481 kts 288°
2026-04-17 23:18 54.87349 -8.29954 37954 ft 481 kts 288°
2026-04-17 23:19 54.89772 -8.40793 37947 ft 481 kts 288°
2026-04-17 23:19 54.92186 -8.51642 37946 ft 481 kts 288°
2026-04-17 23:20 54.94588 -8.62495 37944 ft 481 kts 288°
2026-04-17 23:20 54.96986 -8.73387 37940 ft 482 kts 288°
2026-04-17 23:21 54.99374 -8.84294 37935 ft 482 kts 288°
2026-04-17 23:21 55.01739 -8.95146 37935 ft 482 kts 288°
2026-04-17 23:22 55.04110 -9.06084 37930 ft 482 kts 288°
2026-04-17 23:22 55.06483 -9.17093 37930 ft 482 kts 288°
2026-04-17 23:23 55.08816 -9.27975 37933 ft 482 kts 288°
2026-04-17 23:23 55.11155 -9.38944 37928 ft 482 kts 288°
2026-04-17 23:24 55.13504 -9.50016 37927 ft 482 kts 288°
2026-04-17 23:24 55.15808 -9.60939 37931 ft 482 kts 288°
2026-04-17 23:25 55.18122 -9.71962 37931 ft 482 kts 287°
2026-04-17 23:25 55.20421 -9.82980 37922 ft 482 kts 288°
2026-04-17 23:26 55.22711 -9.94013 37924 ft 482 kts 287°
2026-04-17 23:26 55.24965 -10.05090 37928 ft 482 kts 286°
2026-04-17 23:27 55.26930 -10.16364 37924 ft 480 kts 283°
2026-04-17 23:27 55.28800 -10.27603 37927 ft 479 kts 284°
2026-04-17 23:28 55.30684 -10.38750 37925 ft 480 kts 284°
2026-04-17 23:28 55.32604 -10.49988 37932 ft 481 kts 284°
2026-04-17 23:29 55.34524 -10.61230 37926 ft 480 kts 284°
2026-04-17 23:29 55.36424 -10.72435 37924 ft 478 kts 284°
2026-04-17 23:30 55.38314 -10.83676 37948 ft 479 kts 284°
2026-04-17 23:30 55.40195 -10.94931 37934 ft 481 kts 284°
2026-04-17 23:31 55.42067 -11.06198 37946 ft 479 kts 283°
2026-04-17 23:31 55.43921 -11.17438 37940 ft 478 kts 284°
2026-04-17 23:32 55.45777 -11.28775 37938 ft 479 kts 284°
2026-04-17 23:32 55.47607 -11.40004 37933 ft 479 kts 283°
2026-04-17 23:33 55.49444 -11.51352 37941 ft 478 kts 283°
2026-04-17 23:33 55.51240 -11.62532 37933 ft 477 kts 283°
2026-04-17 23:34 55.53054 -11.73907 37941 ft 480 kts 284°
2026-04-17 23:34 55.54854 -11.85251 37933 ft 478 kts 283°
2026-04-17 23:35 55.56624 -11.96474 37940 ft 476 kts 283°
2026-04-17 23:35 55.58400 -12.07833 37943 ft 477 kts 283°
2026-04-17 23:36 55.60160 -12.19167 37955 ft 479 kts 283°
2026-04-17 23:36 55.61902 -12.30445 37953 ft 478 kts 282°
2026-04-17 23:37 55.63633 -12.41743 37961 ft 475 kts 283°
2026-04-17 23:37 55.65355 -12.53064 37963 ft 476 kts 283°
2026-04-17 23:38 55.67073 -12.64425 37970 ft 478 kts 282°
2026-04-17 23:38 55.68780 -12.75788 37966 ft 476 kts 282°
2026-04-17 23:39 55.70467 -12.87114 37963 ft 476 kts 282°
2026-04-17 23:39 55.72146 -12.98479 37975 ft 479 kts 283°
2026-04-17 23:40 55.73828 -13.09916 37966 ft 477 kts 283°
2026-04-17 23:40 55.75488 -13.21272 37977 ft 473 kts 282°
2026-04-17 23:41 55.77129 -13.32620 37975 ft 475 kts 282°
2026-04-17 23:41 55.78767 -13.44026 37984 ft 478 kts 282°
2026-04-17 23:42 55.80397 -13.55433 37986 ft 475 kts 282°
2026-04-17 23:42 55.82006 -13.66780 37997 ft 474 kts 282°
2026-04-17 23:43 55.83605 -13.78166 37991 ft 476 kts 282°
2026-04-17 23:43 55.85202 -13.89604 37989 ft 475 kts 282°
2026-04-17 23:44 55.86784 -14.00993 37984 ft 472 kts 282°
2026-04-17 23:44 55.88348 -14.12372 37984 ft 473 kts 282°
2026-04-17 23:45 55.90688 -14.29552 37997 ft 475 kts 282°
2026-04-17 23:46 55.92225 -14.40914 38007 ft 470 kts 282°
2026-04-17 23:46 55.93745 -14.52279 38007 ft 472 kts 282°
2026-04-17 23:47 55.95263 -14.63710 38009 ft 474 kts 282°
2026-04-17 23:47 55.96772 -14.75124 38013 ft 470 kts 281°
2026-04-17 23:48 55.98257 -14.86477 38010 ft 471 kts 281°
2026-04-17 23:48 55.99775 -14.97894 38160 ft 473 kts 284°
2026-04-17 23:48 56.00825 -15.03354 38563 ft 468 kts 288°
2026-04-17 23:49 56.01983 -15.08768 38903 ft 465 kts 290°
2026-04-17 23:49 56.04376 -15.19540 39017 ft 469 kts 289°
2026-04-17 23:50 56.06815 -15.30401 39018 ft 470 kts 289°
2026-04-17 23:50 56.09247 -15.41308 39017 ft 475 kts 290°
2026-04-17 23:51 56.11677 -15.52290 39020 ft 473 kts 290°
2026-04-17 23:51 56.14099 -15.63322 39031 ft 478 kts 290°
2026-04-17 23:52 56.16520 -15.74396 39024 ft 474 kts 290°
2026-04-17 23:52 56.18913 -15.85407 39027 ft 474 kts 289°
2026-04-17 23:53 56.21290 -15.96404 39034 ft 471 kts 289°
2026-04-17 23:53 56.23654 -16.07405 39028 ft 472 kts 289°
2026-04-17 23:54 56.26014 -16.18434 39026 ft 472 kts 289°
2026-04-17 23:54 56.28366 -16.29495 39031 ft 474 kts 289°
2026-04-17 23:55 56.30719 -16.40613 39035 ft 475 kts 289°
2026-04-17 23:55 56.33054 -16.51711 39042 ft 474 kts 289°
2026-04-17 23:56 56.35378 -16.62809 39041 ft 471 kts 289°
2026-04-17 23:56 56.37290 -16.71993 39037 ft 471 kts 289°
2026-04-17 23:57 56.39588 -16.83094 39043 ft 473 kts 289°
2026-04-17 23:57 56.41882 -16.94235 39047 ft 475 kts 289°
2026-04-17 23:58 56.44173 -17.05415 39038 ft 474 kts 289°
2026-04-17 23:58 56.46446 -17.16567 39056 ft 473 kts 289°
2026-04-17 23:59 56.48710 -17.27734 39040 ft 472 kts 288°
2026-04-17 23:59 56.50957 -17.38888 39043 ft 472 kts 288°
2026-04-18 00:00 56.53201 -17.50096 39042 ft 473 kts 288°
2026-04-18 00:00 56.55436 -17.61323 39056 ft 475 kts 288°
2026-04-18 00:01 56.57669 -17.72591 39059 ft 473 kts 288°
2026-04-18 00:01 56.59880 -17.83817 39060 ft 472 kts 288°
2026-04-18 00:02 56.62072 -17.95013 39057 ft 471 kts 288°
2026-04-18 00:02 56.64259 -18.06250 39043 ft 472 kts 288°
2026-04-18 00:03 56.66437 -18.17501 39044 ft 472 kts 288°
2026-04-18 00:03 56.68608 -18.28786 39047 ft 474 kts 288°
2026-04-18 00:04 56.70771 -18.40094 39042 ft 472 kts 288°
2026-04-18 00:04 56.72906 -18.51317 39050 ft 472 kts 288°
2026-04-18 00:05 56.75054 -18.62677 39046 ft 471 kts 288°
2026-04-18 00:05 56.77164 -18.73911 39046 ft 472 kts 287°
2026-04-18 00:06 56.79282 -18.85245 39048 ft 473 kts 287°
2026-04-18 00:06 56.81393 -18.96613 39046 ft 473 kts 287°
2026-04-18 00:07 56.83493 -19.07991 39047 ft 473 kts 287°
2026-04-18 00:07 56.85577 -19.19351 39047 ft 470 kts 287°
2026-04-18 00:08 56.87647 -19.30705 39044 ft 471 kts 287°
2026-04-18 00:08 56.89706 -19.42066 39045 ft 472 kts 287°
2026-04-18 00:09 56.91762 -19.53475 39048 ft 472 kts 287°
2026-04-18 00:09 56.93804 -19.64882 39046 ft 472 kts 287°
2026-04-18 00:10 56.95837 -19.76306 39042 ft 472 kts 287°
2026-04-18 00:10 56.97858 -19.87734 39042 ft 471 kts 287°
2026-04-18 00:11 56.99868 -19.99176 39042 ft 471 kts 287°
2026-04-18 00:11 57.01698 -20.10708 39040 ft 471 kts 283°
2026-04-18 00:12 57.03274 -20.22367 39045 ft 470 kts 283°
2026-04-18 00:12 57.04847 -20.34017 39043 ft 470 kts 283°
2026-04-18 00:13 57.06453 -20.45663 39043 ft 471 kts 283°
2026-04-18 00:13 57.08071 -20.57327 39045 ft 470 kts 283°
2026-04-18 00:14 57.09673 -20.68954 39040 ft 469 kts 283°
2026-04-18 00:14 57.11264 -20.80595 39043 ft 469 kts 283°
2026-04-18 00:15 57.12844 -20.92261 39043 ft 469 kts 283°
2026-04-18 00:15 57.14412 -21.03924 39043 ft 469 kts 283°
2026-04-18 00:16 57.15969 -21.15593 39044 ft 469 kts 283°
2026-04-18 00:16 57.17512 -21.27252 39043 ft 469 kts 282°
2026-04-18 00:17 57.19045 -21.38929 39042 ft 468 kts 282°
2026-04-18 00:17 57.20565 -21.50596 39043 ft 468 kts 282°
2026-04-18 00:18 57.22065 -21.62199 39035 ft 468 kts 282°
2026-04-18 00:18 57.23563 -21.73887 39040 ft 468 kts 282°
2026-04-18 00:19 57.25051 -21.85590 39041 ft 468 kts 282°
2026-04-18 00:19 57.26528 -21.97299 39035 ft 467 kts 282°
2026-04-18 00:20 57.27991 -22.08989 39035 ft 467 kts 282°
2026-04-18 00:20 57.29442 -22.20678 39038 ft 467 kts 282°
2026-04-18 00:21 57.30881 -22.32373 39038 ft 467 kts 282°
2026-04-18 00:21 57.32312 -22.44093 39042 ft 467 kts 281°
2026-04-18 00:22 57.33731 -22.55822 39036 ft 467 kts 281°
2026-04-18 00:22 57.35138 -22.67555 39031 ft 467 kts 281°
2026-04-18 00:23 57.36533 -22.79280 39034 ft 466 kts 281°
2026-04-18 00:23 57.37916 -22.90998 39041 ft 465 kts 281°
2026-04-18 00:24 57.39287 -23.02720 39038 ft 465 kts 281°
2026-04-18 00:24 57.40648 -23.14461 39040 ft 465 kts 281°
2026-04-18 00:25 57.41996 -23.26195 39038 ft 465 kts 281°
2026-04-18 00:25 57.43334 -23.37942 39038 ft 465 kts 281°
2026-04-18 00:26 57.44660 -23.49691 39037 ft 464 kts 280°
2026-04-18 00:26 57.45972 -23.61420 39040 ft 464 kts 280°
2026-04-18 00:27 57.47273 -23.73152 39037 ft 464 kts 280°
2026-04-18 00:27 57.48563 -23.84894 39044 ft 464 kts 280°
2026-04-18 00:28 57.49842 -23.96651 39047 ft 464 kts 280°
2026-04-18 00:28 57.51109 -24.08397 39039 ft 464 kts 280°
2026-04-18 00:29 57.52364 -24.20135 39037 ft 461 kts 279°
2026-04-18 00:29 57.53603 -24.31836 39056 ft 460 kts 279°
2026-04-18 00:30 57.54828 -24.43528 39040 ft 461 kts 279°
2026-04-18 00:30 57.56044 -24.55240 39039 ft 461 kts 279°
2026-04-18 00:31 57.57250 -24.66966 39037 ft 460 kts 279°
2026-04-18 00:31 57.58444 -24.78684 39038 ft 460 kts 279°
2026-04-18 00:32 57.59626 -24.90399 39039 ft 459 kts 278°
2026-04-18 00:32 57.60793 -25.02081 39032 ft 458 kts 278°
2026-04-18 00:33 57.61948 -25.13758 39037 ft 457 kts 278°
2026-04-18 00:33 57.63089 -25.25412 39061 ft 457 kts 278°
2026-04-18 00:34 57.64223 -25.37110 39040 ft 458 kts 278°
2026-04-18 00:34 57.65345 -25.48806 39039 ft 458 kts 278°
2026-04-18 00:35 57.66456 -25.60511 39039 ft 458 kts 278°
2026-04-18 00:35 57.67557 -25.72226 39038 ft 458 kts 278°
2026-04-18 00:36 57.68647 -25.83941 39039 ft 458 kts 277°
2026-04-18 00:36 57.69727 -25.95672 39040 ft 458 kts 277°
2026-04-18 00:37 57.70787 -26.07320 39040 ft 457 kts 277°
2026-04-18 00:37 57.71844 -26.19054 39040 ft 457 kts 277°
2026-04-18 00:38 57.72890 -26.30795 39042 ft 458 kts 277°
2026-04-18 00:38 57.73927 -26.42562 39037 ft 458 kts 277°
2026-04-18 00:39 57.74951 -26.54312 39037 ft 457 kts 277°
2026-04-18 00:39 57.75964 -26.66073 39040 ft 457 kts 276°
2026-04-18 00:40 57.76967 -26.77842 39038 ft 457 kts 276°
2026-04-18 00:40 57.77957 -26.89597 39034 ft 457 kts 276°
2026-04-18 00:41 57.78773 -26.99393 39029 ft 457 kts 276°
2026-04-18 00:41 57.79750 -27.11240 39031 ft 457 kts 276°
2026-04-18 00:42 57.80710 -27.23031 39040 ft 458 kts 276°
2026-04-18 00:42 57.81661 -27.34838 39028 ft 458 kts 276°
2026-04-18 00:43 57.82596 -27.46589 39029 ft 458 kts 276°
2026-04-18 00:43 57.83530 -27.58489 39029 ft 458 kts 276°
2026-04-18 00:44 57.84442 -27.70237 39023 ft 458 kts 276°
2026-04-18 00:44 57.85349 -27.82073 39023 ft 458 kts 276°
2026-04-18 00:45 57.86245 -27.93933 39021 ft 458 kts 276°
2026-04-18 00:45 57.87130 -28.05776 39018 ft 458 kts 276°
2026-04-18 00:46 57.88005 -28.17635 39016 ft 458 kts 275°
2026-04-18 00:46 57.88869 -28.29512 39019 ft 459 kts 275°
2026-04-18 00:47 57.89722 -28.41406 39013 ft 459 kts 275°
2026-04-18 00:47 57.90564 -28.53291 39009 ft 459 kts 275°
2026-04-18 00:48 57.91394 -28.65188 39008 ft 458 kts 275°
2026-04-18 00:48 57.92213 -28.77072 39007 ft 458 kts 275°
2026-04-18 00:49 57.93420 -28.94896 39004 ft 458 kts 275°
2026-04-18 00:49 57.94205 -29.06712 39004 ft 458 kts 275°
2026-04-18 00:50 57.94984 -29.18603 39023 ft 458 kts 275°
2026-04-18 00:50 57.95759 -29.30608 38993 ft 460 kts 275°
2026-04-18 00:51 57.96514 -29.42483 38994 ft 459 kts 275°
2026-04-18 00:51 57.97259 -29.54386 38992 ft 458 kts 274°
2026-04-18 00:52 57.97994 -29.66297 38983 ft 457 kts 274°
2026-04-18 00:52 57.98717 -29.78205 38982 ft 457 kts 274°
2026-04-18 00:53 57.99428 -29.90117 38981 ft 457 kts 274°
2026-04-18 00:53 58.00128 -30.02032 38973 ft 457 kts 274°
2026-04-18 00:54 58.00643 -30.13962 38976 ft 456 kts 271°
2026-04-18 00:54 58.01038 -30.25864 38970 ft 454 kts 271°
2026-04-18 00:55 58.01440 -30.37731 38967 ft 454 kts 272°
2026-04-18 00:55 58.01858 -30.49615 38962 ft 454 kts 272°
2026-04-18 00:56 58.02274 -30.61482 38962 ft 453 kts 272°
2026-04-18 00:56 58.02680 -30.73358 38960 ft 453 kts 271°
2026-04-18 00:57 58.03073 -30.85233 38959 ft 453 kts 271°
2026-04-18 00:57 58.03453 -30.97055 38959 ft 450 kts 271°
2026-04-18 00:58 58.03819 -31.08819 38956 ft 448 kts 271°
2026-04-18 00:58 58.04174 -31.20563 38956 ft 448 kts 271°
2026-04-18 00:59 58.04519 -31.32330 38940 ft 449 kts 271°
2026-04-18 00:59 58.04853 -31.44122 38948 ft 450 kts 271°
2026-04-18 01:00 58.05177 -31.55905 38941 ft 450 kts 271°
2026-04-18 01:00 58.05490 -31.67679 38938 ft 448 kts 270°
2026-04-18 01:01 58.05791 -31.79415 38930 ft 446 kts 270°
2026-04-18 01:01 58.06077 -31.91048 38930 ft 446 kts 270°
2026-04-18 01:02 58.06357 -32.02822 38937 ft 446 kts 270°
2026-04-18 01:02 58.06625 -32.14544 38916 ft 446 kts 270°
2026-04-18 01:03 58.06880 -32.26178 38918 ft 446 kts 270°
2026-04-18 01:03 58.07126 -32.37895 38913 ft 447 kts 270°
2026-04-18 01:04 58.07362 -32.49601 38911 ft 445 kts 270°
2026-04-18 01:04 58.07586 -32.61297 38901 ft 445 kts 269°
2026-04-18 01:05 58.07798 -32.72974 38899 ft 445 kts 269°
2026-04-18 01:05 58.08001 -32.84657 38901 ft 445 kts 269°
2026-04-18 01:06 58.08193 -32.96350 38887 ft 445 kts 269°
2026-04-18 01:06 58.08374 -33.08020 38887 ft 445 kts 269°
2026-04-18 01:07 58.08544 -33.19721 38886 ft 445 kts 269°
2026-04-18 01:07 58.08704 -33.31409 38881 ft 445 kts 269°
2026-04-18 01:08 58.08853 -33.43106 38893 ft 445 kts 269°
2026-04-18 01:08 58.08991 -33.54838 38859 ft 447 kts 269°
2026-04-18 01:09 58.09120 -33.66604 38873 ft 448 kts 269°
2026-04-18 01:09 58.09237 -33.78358 38861 ft 448 kts 268°
2026-04-18 01:10 58.09344 -33.90120 38846 ft 446 kts 268°
2026-04-18 01:10 58.09440 -34.01829 38849 ft 445 kts 268°
2026-04-18 01:11 58.09524 -34.13525 38849 ft 445 kts 268°
2026-04-18 01:11 58.09598 -34.25218 38844 ft 445 kts 268°
2026-04-18 01:12 58.09661 -34.36913 38832 ft 445 kts 268°
2026-04-18 01:12 58.09713 -34.48608 38850 ft 445 kts 268°
2026-04-18 01:13 58.09755 -34.60356 38843 ft 448 kts 268°
2026-04-18 01:13 58.09786 -34.72019 38820 ft 446 kts 267°
2026-04-18 01:14 58.09807 -34.83715 38823 ft 445 kts 267°
2026-04-18 01:14 58.09816 -34.95409 38817 ft 445 kts 267°
2026-04-18 01:15 58.09815 -35.07117 38812 ft 445 kts 267°
2026-04-18 01:15 58.09803 -35.18823 38809 ft 445 kts 267°
2026-04-18 01:16 58.09780 -35.30494 38809 ft 445 kts 267°
2026-04-18 01:16 58.09747 -35.42207 38806 ft 444 kts 266°
2026-04-18 01:17 58.09703 -35.53875 38822 ft 444 kts 266°
2026-04-18 01:17 58.09648 -35.65578 38785 ft 447 kts 266°
2026-04-18 01:18 58.09582 -35.77319 38788 ft 447 kts 266°
2026-04-18 01:18 58.09505 -35.89076 38787 ft 447 kts 266°
2026-04-18 01:19 58.09418 -36.00842 38774 ft 447 kts 266°
2026-04-18 01:19 58.09320 -36.12584 38773 ft 447 kts 266°
2026-04-18 01:20 58.09212 -36.24322 38769 ft 446 kts 266°
2026-04-18 01:20 58.09092 -36.36034 38769 ft 446 kts 266°
2026-04-18 01:21 58.08961 -36.47764 38760 ft 446 kts 265°
2026-04-18 01:21 58.08820 -36.59477 38793 ft 446 kts 265°
2026-04-18 01:22 58.08668 -36.71217 38755 ft 448 kts 265°
2026-04-18 01:22 58.08504 -36.83001 38748 ft 449 kts 265°
2026-04-18 01:23 58.08329 -36.94809 38741 ft 449 kts 265°
2026-04-18 01:23 58.08145 -37.06539 38741 ft 449 kts 265°
2026-04-18 01:24 58.07948 -37.18399 38738 ft 449 kts 265°
2026-04-18 01:24 58.07741 -37.30140 38732 ft 449 kts 265°
2026-04-18 01:25 58.07523 -37.41933 38733 ft 449 kts 265°
2026-04-18 01:25 58.07294 -37.53737 38727 ft 449 kts 265°
2026-04-18 01:26 58.07054 -37.65524 38724 ft 449 kts 265°
2026-04-18 01:26 58.06802 -37.77347 38717 ft 452 kts 265°
2026-04-18 01:27 58.06582 -37.87290 38711 ft 452 kts 264°
2026-04-18 01:27 58.06311 -37.99075 38713 ft 453 kts 264°
2026-04-18 01:28 58.06027 -38.10954 38704 ft 452 kts 264°
2026-04-18 01:28 58.05733 -38.22809 38698 ft 452 kts 264°
2026-04-18 01:29 58.05426 -38.34687 38702 ft 453 kts 264°
2026-04-18 01:29 58.05109 -38.46558 38701 ft 453 kts 264°
2026-04-18 01:30 58.04780 -38.58432 38689 ft 453 kts 264°
2026-04-18 01:30 58.04441 -38.70311 38689 ft 453 kts 264°
2026-04-18 01:31 58.04089 -38.82210 38693 ft 455 kts 264°
2026-04-18 01:31 58.03725 -38.94138 38677 ft 456 kts 264°
2026-04-18 01:32 58.03350 -39.06084 38677 ft 456 kts 264°
2026-04-18 01:32 58.02965 -39.18008 38678 ft 455 kts 264°
2026-04-18 01:33 58.02568 -39.29927 38674 ft 455 kts 264°
2026-04-18 01:33 58.02160 -39.41854 38672 ft 455 kts 264°
2026-04-18 01:34 58.01741 -39.53765 38666 ft 455 kts 264°
2026-04-18 01:34 58.01311 -39.65650 38667 ft 455 kts 263°
2026-04-18 01:35 58.00869 -39.77580 38666 ft 455 kts 263°
2026-04-18 01:35 58.00417 -39.89475 38660 ft 456 kts 263°
2026-04-18 01:36 57.99690 -40.01310 38661 ft 453 kts 256°
2026-04-18 01:36 57.98104 -40.12810 38664 ft 453 kts 253°
2026-04-18 01:37 57.96357 -40.24204 38658 ft 453 kts 252°
2026-04-18 01:37 57.94581 -40.35574 38653 ft 453 kts 252°
2026-04-18 01:38 57.92808 -40.46943 38652 ft 453 kts 252°
2026-04-18 01:38 57.91036 -40.58299 38653 ft 453 kts 252°
2026-04-18 01:39 57.89254 -40.69654 38654 ft 453 kts 252°
2026-04-18 01:39 57.87462 -40.80996 38654 ft 453 kts 252°
2026-04-18 01:40 57.85657 -40.92342 38655 ft 453 kts 252°
2026-04-18 01:40 57.83846 -41.03649 38646 ft 453 kts 252°
2026-04-18 01:41 57.82021 -41.14969 38650 ft 452 kts 252°
2026-04-18 01:41 57.80192 -41.26242 38651 ft 452 kts 252°
2026-04-18 01:42 57.78362 -41.37445 38646 ft 452 kts 252°
2026-04-18 01:42 57.76512 -41.48701 38646 ft 452 kts 252°
2026-04-18 01:43 57.74653 -41.59938 38647 ft 452 kts 251°
2026-04-18 01:43 57.72783 -41.71172 38641 ft 452 kts 251°
2026-04-18 01:44 57.70907 -41.82370 38653 ft 451 kts 251°
2026-04-18 01:44 57.69018 -41.93573 38642 ft 451 kts 251°
2026-04-18 01:45 57.67122 -42.04754 38642 ft 451 kts 251°
2026-04-18 01:45 57.65217 -42.15911 38645 ft 451 kts 251°
2026-04-18 01:46 57.63300 -42.27071 38659 ft 451 kts 251°
2026-04-18 01:46 57.61372 -42.38224 38644 ft 451 kts 251°
2026-04-18 01:47 57.59437 -42.49350 38641 ft 452 kts 251°
2026-04-18 01:47 57.57490 -42.60479 38643 ft 452 kts 251°
2026-04-18 01:48 57.55533 -42.71600 38644 ft 452 kts 251°
2026-04-18 01:48 57.53564 -42.82719 38656 ft 452 kts 251°
2026-04-18 01:49 57.51581 -42.93846 38645 ft 454 kts 251°
2026-04-18 01:49 57.49586 -43.04977 38648 ft 454 kts 251°
2026-04-18 01:50 57.47596 -43.16014 38644 ft 453 kts 250°
2026-04-18 01:50 57.45568 -43.27193 38647 ft 453 kts 250°
2026-04-18 01:51 57.43561 -43.38194 38650 ft 453 kts 250°
2026-04-18 01:51 57.41527 -43.49272 38645 ft 454 kts 250°
2026-04-18 01:52 57.39485 -43.60332 38649 ft 452 kts 250°
2026-04-18 01:52 57.37439 -43.71353 38649 ft 452 kts 250°
2026-04-18 01:53 57.35384 -43.82350 38647 ft 452 kts 250°
2026-04-18 01:54 57.32284 -43.98829 38652 ft 452 kts 250°
2026-04-18 01:54 57.30203 -44.09809 38642 ft 452 kts 250°
2026-04-18 01:55 57.28118 -44.20747 38649 ft 451 kts 250°
2026-04-18 01:55 57.26024 -44.31674 38652 ft 451 kts 250°
2026-04-18 01:56 57.23920 -44.42590 38650 ft 452 kts 250°
2026-04-18 01:56 57.21802 -44.53515 38653 ft 453 kts 249°
2026-04-18 01:57 57.19672 -44.64443 38654 ft 453 kts 249°
2026-04-18 01:57 57.17532 -44.75358 38655 ft 453 kts 249°
2026-04-18 01:58 57.15384 -44.86257 38655 ft 453 kts 249°
2026-04-18 01:58 57.13224 -44.97153 38661 ft 453 kts 249°
2026-04-18 01:59 57.11058 -45.08021 38661 ft 453 kts 249°
2026-04-18 01:59 57.08881 -45.18884 38664 ft 453 kts 249°
2026-04-18 02:00 57.06695 -45.29731 38659 ft 453 kts 249°
2026-04-18 02:00 57.04499 -45.40569 38670 ft 452 kts 249°
2026-04-18 02:01 57.02294 -45.51389 38672 ft 452 kts 249°
2026-04-18 02:01 57.00080 -45.62199 38673 ft 453 kts 249°
2026-04-18 02:02 56.97856 -45.72997 38670 ft 453 kts 249°
2026-04-18 02:02 56.95623 -45.83784 38684 ft 453 kts 248°
2026-04-18 02:03 56.93374 -45.94588 38675 ft 454 kts 249°
2026-04-18 02:03 56.91114 -46.05390 38675 ft 454 kts 248°
2026-04-18 02:04 56.88844 -46.16178 38675 ft 454 kts 248°
2026-04-18 02:04 56.86564 -46.26958 38675 ft 454 kts 248°
2026-04-18 02:05 56.84275 -46.37726 38682 ft 454 kts 248°
2026-04-18 02:05 56.81977 -46.48474 38677 ft 454 kts 248°
2026-04-18 02:06 56.79671 -46.59206 38684 ft 454 kts 248°
2026-04-18 02:06 56.77356 -46.69923 38686 ft 454 kts 248°
2026-04-18 02:07 56.75032 -46.80627 38690 ft 454 kts 248°
2026-04-18 02:07 56.72698 -46.91323 38688 ft 454 kts 248°
2026-04-18 02:08 56.70356 -47.01998 38685 ft 454 kts 248°
2026-04-18 02:08 56.68006 -47.12657 38688 ft 453 kts 248°
2026-04-18 02:09 56.65647 -47.23299 38698 ft 453 kts 248°
2026-04-18 02:09 56.63684 -47.32119 38700 ft 454 kts 248°
2026-04-18 02:10 56.61306 -47.42746 38705 ft 454 kts 248°
2026-04-18 02:10 56.58921 -47.53356 38701 ft 454 kts 248°
2026-04-18 02:11 56.56132 -47.65693 38704 ft 454 kts 248°
2026-04-18 02:11 56.54121 -47.74545 38705 ft 454 kts 248°
2026-04-18 02:12 56.51710 -47.85109 38706 ft 454 kts 247°
2026-04-18 02:12 56.49288 -47.95667 38713 ft 454 kts 247°
2026-04-18 02:13 56.46859 -48.06203 38714 ft 454 kts 247°
2026-04-18 02:13 56.44421 -48.16726 38713 ft 453 kts 247°
2026-04-18 02:14 56.41994 -48.27150 38716 ft 453 kts 247°
2026-04-18 02:14 56.39527 -48.37695 38722 ft 453 kts 247°
2026-04-18 02:15 56.37085 -48.48084 38722 ft 453 kts 247°
2026-04-18 02:15 56.34616 -48.58537 38727 ft 453 kts 247°
2026-04-18 02:16 56.32138 -48.68972 38740 ft 453 kts 247°
2026-04-18 02:16 56.29647 -48.79413 38732 ft 454 kts 247°
2026-04-18 02:17 56.27140 -48.89875 38732 ft 455 kts 247°
2026-04-18 02:17 56.24626 -49.00314 38741 ft 455 kts 247°
2026-04-18 02:18 56.22104 -49.10735 38741 ft 455 kts 247°
2026-04-18 02:18 56.19571 -49.21151 38736 ft 455 kts 247°
2026-04-18 02:19 56.17031 -49.31547 38744 ft 455 kts 247°
2026-04-18 02:19 56.14479 -49.41944 38752 ft 455 kts 246°
2026-04-18 02:20 56.11923 -49.52306 38752 ft 455 kts 246°
2026-04-18 02:20 56.09356 -49.62666 38758 ft 455 kts 246°
2026-04-18 02:21 56.06779 -49.73013 38746 ft 455 kts 246°
2026-04-18 02:21 56.04192 -49.83354 38760 ft 455 kts 246°
2026-04-18 02:22 56.01598 -49.93675 38767 ft 455 kts 246°
2026-04-18 02:22 55.99008 -50.03977 38765 ft 455 kts 247°
2026-04-18 02:23 55.96498 -50.14379 38774 ft 457 kts 248°
2026-04-18 02:23 55.94003 -50.24820 38772 ft 457 kts 248°
2026-04-18 02:24 55.91485 -50.35236 38781 ft 458 kts 248°
2026-04-18 02:24 55.88945 -50.45646 38782 ft 458 kts 248°
2026-04-18 02:25 55.86409 -50.55974 38790 ft 458 kts 248°
2026-04-18 02:25 55.83850 -50.66350 38790 ft 458 kts 248°
2026-04-18 02:26 55.81283 -50.76711 38799 ft 458 kts 247°
2026-04-18 02:26 55.78704 -50.87069 38794 ft 458 kts 248°
2026-04-18 02:27 55.76120 -50.97402 38807 ft 458 kts 247°
2026-04-18 02:27 55.73529 -51.07714 38807 ft 458 kts 247°
2026-04-18 02:28 55.70927 -51.18023 38812 ft 458 kts 247°
2026-04-18 02:28 55.68317 -51.28317 38813 ft 458 kts 247°
2026-04-18 02:29 55.65699 -51.38589 38824 ft 458 kts 248°
2026-04-18 02:29 55.63063 -51.48885 38827 ft 459 kts 248°
2026-04-18 02:30 55.60417 -51.59180 38824 ft 460 kts 247°
2026-04-18 02:30 55.57761 -51.69460 38828 ft 460 kts 247°
2026-04-18 02:31 55.55097 -51.79727 38835 ft 460 kts 247°
2026-04-18 02:31 55.52424 -51.89978 38835 ft 460 kts 247°
2026-04-18 02:32 55.49744 -52.00210 38846 ft 460 kts 247°
2026-04-18 02:32 55.47052 -52.10444 38843 ft 460 kts 247°
2026-04-18 02:33 55.44352 -52.20659 38855 ft 460 kts 247°
2026-04-18 02:33 55.41644 -52.30862 38852 ft 460 kts 247°
2026-04-18 02:34 55.38924 -52.41062 38841 ft 460 kts 247°
2026-04-18 02:34 55.36201 -52.51224 38863 ft 459 kts 247°
2026-04-18 02:35 55.33489 -52.61303 38893 ft 459 kts 247°
2026-04-18 02:35 55.30731 -52.71508 38876 ft 460 kts 247°
2026-04-18 02:36 55.27997 -52.81583 38882 ft 460 kts 247°
2026-04-18 02:36 55.25231 -52.91726 38867 ft 461 kts 247°
2026-04-18 02:37 55.22462 -53.01834 38899 ft 460 kts 247°
2026-04-18 02:37 55.19681 -53.11944 38899 ft 460 kts 247°
2026-04-18 02:38 55.16897 -53.22022 38901 ft 460 kts 246°
2026-04-18 02:38 55.14100 -53.32101 38907 ft 460 kts 246°
2026-04-18 02:39 55.11295 -53.42164 38910 ft 460 kts 246°
2026-04-18 02:39 55.08487 -53.52191 38925 ft 460 kts 246°
2026-04-18 02:40 55.05669 -53.62217 38922 ft 460 kts 246°
2026-04-18 02:40 55.02842 -53.72227 38937 ft 460 kts 246°
2026-04-18 02:41 55.00011 -53.82211 38962 ft 460 kts 246°
2026-04-18 02:41 54.97163 -53.92209 38963 ft 461 kts 246°
2026-04-18 02:42 54.94307 -54.02192 38953 ft 461 kts 246°
2026-04-18 02:42 54.91441 -54.12171 38969 ft 461 kts 246°
2026-04-18 02:43 54.88565 -54.22140 38967 ft 461 kts 246°
2026-04-18 02:43 54.85686 -54.32078 38991 ft 461 kts 246°
2026-04-18 02:44 54.82793 -54.42019 38991 ft 461 kts 246°
2026-04-18 02:44 54.79894 -54.51939 39002 ft 461 kts 246°
2026-04-18 02:45 54.76994 -54.61822 39006 ft 461 kts 246°
2026-04-18 02:45 54.74081 -54.71710 39016 ft 461 kts 246°
2026-04-18 02:46 54.71164 -54.81567 39024 ft 461 kts 246°
2026-04-18 02:46 54.68236 -54.91423 39039 ft 461 kts 246°
2026-04-18 02:47 54.65300 -55.01260 39042 ft 460 kts 246°
2026-04-18 02:47 54.62362 -55.11066 39054 ft 460 kts 246°
2026-04-18 02:48 54.59416 -55.20857 39051 ft 460 kts 246°
2026-04-18 02:48 54.56461 -55.30642 39072 ft 460 kts 246°
2026-04-18 02:49 54.53499 -55.40405 39072 ft 460 kts 246°
2026-04-18 02:49 54.50525 -55.50165 39074 ft 460 kts 246°
2026-04-18 02:50 54.47555 -55.59877 39078 ft 459 kts 246°
2026-04-18 02:50 54.44571 -55.69596 39080 ft 459 kts 246°
2026-04-18 02:51 54.41583 -55.79288 39083 ft 459 kts 246°
2026-04-18 02:51 54.38589 -55.88957 39091 ft 459 kts 246°
2026-04-18 02:52 54.35583 -55.98623 39089 ft 458 kts 246°
2026-04-18 02:52 54.32598 -56.08185 39100 ft 458 kts 246°
2026-04-18 02:53 54.29570 -56.17852 39105 ft 458 kts 246°
2026-04-18 02:53 54.26546 -56.27465 39110 ft 459 kts 246°
2026-04-18 02:54 54.23534 -56.37002 39110 ft 459 kts 246°
2026-04-18 02:54 54.20495 -56.46582 39116 ft 458 kts 246°
2026-04-18 02:55 54.17458 -56.56121 39112 ft 457 kts 246°
2026-04-18 02:55 54.14410 -56.65658 39117 ft 457 kts 246°
2026-04-18 02:56 54.11357 -56.75174 39120 ft 457 kts 246°
2026-04-18 02:56 54.07258 -56.87890 39127 ft 458 kts 246°
2026-04-18 02:57 54.04210 -56.97302 39276 ft 458 kts 246°
2026-04-18 02:57 54.02673 -57.02040 39441 ft 457 kts 246°
2026-04-18 02:57 54.01136 -57.06857 39601 ft 457 kts 246°
2026-04-18 02:58 53.99636 -57.11617 39767 ft 456 kts 247°
2026-04-18 02:58 53.98163 -57.16313 39915 ft 456 kts 247°
2026-04-18 02:58 53.96666 -57.21071 40052 ft 456 kts 247°
2026-04-18 02:58 53.95167 -57.25822 40144 ft 457 kts 246°
2026-04-18 02:59 53.92148 -57.35325 40127 ft 457 kts 247°
2026-04-18 02:59 53.89124 -57.44784 40158 ft 456 kts 247°
2026-04-18 03:00 53.86092 -57.54232 40168 ft 456 kts 247°
2026-04-18 03:00 53.83056 -57.63653 40167 ft 456 kts 247°
2026-04-18 03:01 53.80014 -57.73065 40173 ft 456 kts 246°
2026-04-18 03:01 53.76961 -57.82471 40140 ft 456 kts 247°
2026-04-18 03:02 53.73903 -57.91852 40187 ft 455 kts 247°
2026-04-18 03:02 53.70843 -58.01206 40191 ft 455 kts 246°
2026-04-18 03:03 53.67772 -58.10558 40192 ft 455 kts 246°
2026-04-18 03:03 53.64699 -58.19882 40191 ft 455 kts 246°
2026-04-18 03:04 53.61614 -58.29203 40161 ft 455 kts 246°
2026-04-18 03:04 53.58523 -58.38507 40185 ft 455 kts 246°
2026-04-18 03:05 53.55430 -58.47781 40194 ft 454 kts 247°
2026-04-18 03:05 53.52342 -58.57007 40195 ft 453 kts 247°
2026-04-18 03:06 53.49240 -58.66245 40199 ft 453 kts 247°
2026-04-18 03:06 53.46155 -58.75395 40155 ft 453 kts 247°
2026-04-18 03:07 53.43023 -58.84646 40208 ft 453 kts 246°
2026-04-18 03:07 53.39929 -58.93753 40209 ft 453 kts 246°
2026-04-18 03:08 53.36812 -59.02895 40213 ft 452 kts 246°
2026-04-18 03:08 53.33682 -59.12042 40211 ft 452 kts 246°
2026-04-18 03:09 53.30549 -59.21161 40183 ft 452 kts 246°
2026-04-18 03:09 53.27404 -59.30280 40220 ft 452 kts 246°
2026-04-18 03:10 53.24261 -59.39364 40227 ft 452 kts 246°
2026-04-18 03:10 53.21109 -59.48442 40224 ft 453 kts 246°
2026-04-18 03:11 53.17936 -59.57550 40227 ft 455 kts 246°
2026-04-18 03:11 53.14746 -59.66666 40227 ft 455 kts 246°
2026-04-18 03:12 53.11550 -59.75760 40239 ft 455 kts 246°
2026-04-18 03:12 53.08352 -59.84831 40240 ft 455 kts 246°
2026-04-18 03:13 53.05143 -59.93907 40248 ft 455 kts 246°
2026-04-18 03:13 53.01932 -60.02950 40237 ft 455 kts 246°
2026-04-18 03:14 52.98709 -60.11995 40230 ft 455 kts 246°
2026-04-18 03:14 52.95480 -60.21021 40254 ft 454 kts 246°
2026-04-18 03:15 52.92255 -60.30007 40254 ft 454 kts 246°
2026-04-18 03:15 52.89015 -60.39003 40255 ft 454 kts 246°
2026-04-18 03:16 52.85770 -60.47980 40276 ft 454 kts 246°
2026-04-18 03:16 52.82531 -60.56905 40241 ft 452 kts 246°
2026-04-18 03:17 52.79287 -60.65814 40263 ft 451 kts 246°
2026-04-18 03:17 52.76047 -60.74684 40262 ft 451 kts 246°
2026-04-18 03:18 52.72802 -60.83538 40269 ft 451 kts 246°
2026-04-18 03:18 52.69543 -60.92395 40276 ft 451 kts 245°
2026-04-18 03:19 52.66303 -61.01170 40253 ft 451 kts 245°
2026-04-18 03:19 52.63030 -61.10003 40279 ft 452 kts 245°
2026-04-18 03:20 52.59754 -61.18813 40276 ft 452 kts 245°
2026-04-18 03:20 52.56465 -61.27626 40284 ft 452 kts 245°
2026-04-18 03:21 52.53151 -61.36480 40287 ft 452 kts 245°
2026-04-18 03:21 52.49874 -61.45201 40287 ft 452 kts 245°
2026-04-18 03:22 52.46543 -61.54037 40291 ft 453 kts 245°
2026-04-18 03:22 52.43246 -61.62751 40290 ft 453 kts 245°
2026-04-18 03:23 52.39917 -61.71520 40296 ft 453 kts 245°
2026-04-18 03:23 52.36579 -61.80282 40295 ft 453 kts 245°
2026-04-18 03:24 52.33235 -61.89026 40294 ft 453 kts 245°
2026-04-18 03:24 52.29867 -61.97803 40299 ft 452 kts 245°
2026-04-18 03:25 52.26545 -62.06436 40307 ft 452 kts 245°
2026-04-18 03:25 52.23194 -62.15113 40309 ft 452 kts 245°
2026-04-18 03:26 52.19835 -62.23782 40310 ft 452 kts 245°
2026-04-18 03:26 52.16470 -62.32430 40313 ft 451 kts 245°
2026-04-18 03:27 52.13113 -62.41033 40310 ft 450 kts 245°
2026-04-18 03:27 52.09744 -62.49639 40313 ft 450 kts 245°
2026-04-18 03:28 52.06378 -62.58209 40314 ft 450 kts 245°
2026-04-18 03:28 52.03006 -62.66767 40314 ft 450 kts 245°
2026-04-18 03:29 51.99627 -62.75307 40316 ft 449 kts 245°
2026-04-18 03:29 51.96248 -62.83823 40316 ft 448 kts 245°
2026-04-18 03:30 51.92871 -62.92307 40319 ft 448 kts 245°
2026-04-18 03:30 51.89482 -63.00794 40321 ft 449 kts 245°
2026-04-18 03:31 51.86088 -63.09263 40285 ft 448 kts 245°
2026-04-18 03:31 51.82686 -63.17724 40318 ft 448 kts 245°
2026-04-18 03:32 51.79281 -63.26163 40318 ft 448 kts 245°
2026-04-18 03:32 51.75871 -63.34590 40322 ft 448 kts 245°
2026-04-18 03:33 51.72451 -63.43014 40319 ft 449 kts 245°
2026-04-18 03:33 51.69026 -63.51422 40298 ft 448 kts 245°
2026-04-18 03:34 51.65600 -63.59801 40325 ft 448 kts 245°
2026-04-18 03:34 51.62170 -63.68167 40324 ft 447 kts 244°
2026-04-18 03:35 51.58733 -63.76523 40325 ft 448 kts 244°
2026-04-18 03:35 51.55293 -63.84859 40330 ft 448 kts 244°
2026-04-18 03:36 51.51848 -63.93178 40322 ft 447 kts 244°
2026-04-18 03:36 51.48380 -64.01440 40326 ft 448 kts 242°
2026-04-18 03:37 51.44484 -64.09316 40327 ft 452 kts 239°
2026-04-18 03:37 51.40474 -64.17083 40327 ft 452 kts 239°
2026-04-18 03:38 51.36442 -64.24822 40331 ft 452 kts 239°
2026-04-18 03:38 51.32410 -64.32556 40325 ft 453 kts 239°
2026-04-18 03:39 51.29055 -64.38991 40321 ft 453 kts 239°
2026-04-18 03:39 51.25018 -64.46716 40323 ft 453 kts 239°
2026-04-18 03:40 51.20974 -64.54431 40323 ft 453 kts 239°
2026-04-18 03:40 51.16925 -64.62134 40307 ft 454 kts 238°
2026-04-18 03:41 51.12861 -64.69843 40314 ft 456 kts 238°
2026-04-18 03:41 51.08774 -64.77570 40315 ft 456 kts 238°
2026-04-18 03:42 51.04684 -64.85276 40316 ft 456 kts 238°
2026-04-18 03:42 51.00584 -64.92979 40314 ft 456 kts 238°
2026-04-18 03:43 50.96483 -65.00665 40308 ft 458 kts 238°
2026-04-18 03:43 50.92358 -65.08370 40309 ft 458 kts 238°
2026-04-18 03:44 50.88221 -65.16073 40307 ft 459 kts 238°
2026-04-18 03:44 50.84112 -65.23703 40309 ft 459 kts 238°
2026-04-18 03:45 50.79964 -65.31380 40307 ft 459 kts 237°
2026-04-18 03:45 50.75817 -65.39033 40309 ft 459 kts 237°
2026-04-18 03:46 50.71658 -65.46686 40307 ft 459 kts 237°
2026-04-18 03:46 50.67496 -65.54322 40307 ft 459 kts 237°
2026-04-18 03:47 50.63328 -65.61946 40286 ft 459 kts 237°
2026-04-18 03:47 50.59145 -65.69577 40303 ft 460 kts 237°
2026-04-18 03:48 50.54959 -65.77187 40301 ft 460 kts 237°
2026-04-18 03:48 50.50764 -65.84791 40300 ft 460 kts 237°
2026-04-18 03:49 50.46564 -65.92382 40261 ft 460 kts 236°
2026-04-18 03:49 50.42362 -65.99958 40289 ft 460 kts 236°
2026-04-18 03:50 50.38156 -66.07517 40288 ft 460 kts 236°
2026-04-18 03:50 50.33945 -66.15059 40288 ft 460 kts 236°
2026-04-18 03:51 50.29730 -66.22589 40283 ft 460 kts 236°
2026-04-18 03:51 50.25504 -66.30116 40281 ft 460 kts 236°
2026-04-18 03:52 50.21289 -66.37603 40284 ft 459 kts 236°
2026-04-18 03:52 50.17064 -66.45086 40281 ft 459 kts 236°
2026-04-18 03:53 50.12831 -66.52560 40284 ft 459 kts 236°
2026-04-18 03:53 50.08595 -66.60019 40284 ft 460 kts 236°
2026-04-18 03:54 50.04356 -66.67461 40291 ft 460 kts 236°
2026-04-18 03:54 50.00107 -66.74899 40287 ft 460 kts 236°
2026-04-18 03:55 49.95854 -66.82324 40286 ft 460 kts 236°
2026-04-18 03:55 49.91598 -66.89731 40269 ft 460 kts 236°
2026-04-18 03:56 49.87324 -66.97152 40286 ft 462 kts 236°
2026-04-18 03:56 49.83038 -67.04568 40286 ft 462 kts 236°
2026-04-18 03:57 49.76600 -67.15667 40283 ft 462 kts 235°
2026-04-18 03:58 49.72298 -67.23058 40284 ft 464 kts 235°
2026-04-18 03:58 49.67974 -67.30468 40287 ft 465 kts 235°
2026-04-18 03:59 49.63632 -67.37883 40285 ft 465 kts 235°
2026-04-18 03:59 49.59294 -67.45268 40285 ft 465 kts 235°
2026-04-18 04:00 49.54940 -67.52665 40287 ft 467 kts 236°
2026-04-18 04:00 49.50594 -67.60031 40279 ft 468 kts 235°
2026-04-18 04:01 49.46213 -67.67427 40278 ft 468 kts 235°
2026-04-18 04:01 49.41822 -67.74822 40272 ft 468 kts 235°
2026-04-18 04:02 49.37428 -67.82201 40272 ft 469 kts 235°
2026-04-18 04:02 49.33015 -67.89593 40268 ft 470 kts 235°
2026-04-18 04:03 49.28595 -67.96970 40263 ft 470 kts 235°
2026-04-18 04:03 49.24168 -68.04339 40262 ft 470 kts 235°
2026-04-18 04:04 49.19734 -68.11700 40249 ft 471 kts 234°
2026-04-18 04:04 49.15294 -68.19073 40255 ft 470 kts 236°
2026-04-18 04:05 49.11590 -68.27098 40260 ft 459 kts 246°
2026-04-18 04:05 49.08402 -68.35521 40254 ft 457 kts 248°
2026-04-18 04:06 49.05303 -68.43959 40257 ft 456 kts 248°
2026-04-18 04:06 49.02194 -68.52381 40257 ft 456 kts 248°
2026-04-18 04:07 48.99059 -68.60791 40255 ft 456 kts 248°
2026-04-18 04:07 48.95915 -68.69176 40252 ft 456 kts 247°
2026-04-18 04:08 48.92764 -68.77549 40254 ft 456 kts 247°
2026-04-18 04:08 48.89606 -68.85915 40239 ft 456 kts 247°
2026-04-18 04:09 48.86442 -68.94274 40255 ft 457 kts 247°
2026-04-18 04:09 48.83282 -69.02590 40251 ft 457 kts 247°
2026-04-18 04:10 48.80108 -69.10917 40248 ft 456 kts 247°
2026-04-18 04:10 48.76929 -69.19235 40249 ft 456 kts 247°
2026-04-18 04:11 48.73726 -69.27592 40252 ft 456 kts 247°
2026-04-18 04:11 48.70537 -69.35884 40251 ft 456 kts 247°
2026-04-18 04:12 48.67363 -69.44112 40247 ft 456 kts 247°
2026-04-18 04:12 48.64166 -69.52373 40246 ft 456 kts 246°
2026-04-18 04:13 48.60958 -69.60638 40239 ft 456 kts 246°
2026-04-18 04:13 48.57741 -69.68898 40242 ft 456 kts 246°
2026-04-18 04:14 48.54524 -69.77131 40247 ft 455 kts 246°
2026-04-18 04:14 48.51308 -69.85339 40245 ft 455 kts 246°
2026-04-18 04:15 48.48080 -69.93553 40248 ft 455 kts 246°
2026-04-18 04:15 48.44852 -70.01743 40247 ft 455 kts 246°
2026-04-18 04:16 48.41615 -70.09929 40243 ft 456 kts 246°
2026-04-18 04:16 48.38367 -70.18118 40241 ft 456 kts 246°
2026-04-18 04:17 48.35108 -70.26309 40245 ft 456 kts 246°
2026-04-18 04:17 48.31846 -70.34482 40244 ft 455 kts 246°
2026-04-18 04:18 48.28593 -70.42604 40242 ft 454 kts 246°
2026-04-18 04:18 48.25337 -70.50714 40226 ft 454 kts 246°
2026-04-18 04:19 48.22066 -70.58836 40216 ft 454 kts 245°
2026-04-18 04:19 48.18794 -70.66934 40210 ft 454 kts 245°
2026-04-18 04:20 48.15516 -70.75025 40203 ft 454 kts 245°
2026-04-18 04:20 48.12233 -70.83101 40202 ft 454 kts 245°
2026-04-18 04:21 48.08944 -70.91170 40213 ft 454 kts 245°
2026-04-18 04:21 48.05649 -70.99226 40202 ft 453 kts 245°
2026-04-18 04:22 48.02361 -71.07244 40198 ft 452 kts 245°
2026-04-18 04:22 47.99074 -71.15238 40204 ft 452 kts 245°
2026-04-18 04:23 47.95776 -71.23232 40177 ft 452 kts 245°
2026-04-18 04:23 47.93029 -71.29873 40193 ft 452 kts 245°
2026-04-18 04:24 47.89725 -71.37840 40187 ft 452 kts 245°
2026-04-18 04:24 47.86409 -71.45812 40186 ft 452 kts 245°
2026-04-18 04:25 47.82550 -71.55058 40187 ft 452 kts 245°
2026-04-18 04:25 47.79768 -71.61706 40182 ft 451 kts 244°
2026-04-18 04:26 47.76452 -71.69607 40187 ft 450 kts 244°
2026-04-18 04:26 47.73131 -71.77498 40187 ft 450 kts 244°
2026-04-18 04:27 47.69802 -71.85385 40186 ft 450 kts 244°
2026-04-18 04:27 47.66471 -71.93253 40186 ft 450 kts 244°
2026-04-18 04:28 47.63135 -72.01109 40185 ft 450 kts 244°
2026-04-18 04:28 47.59791 -72.08962 40188 ft 450 kts 244°
2026-04-18 04:29 47.56447 -72.16796 40184 ft 450 kts 244°
2026-04-18 04:29 47.53098 -72.24612 40187 ft 449 kts 244°
2026-04-18 04:30 47.49752 -72.32402 40186 ft 448 kts 244°
2026-04-18 04:30 47.46405 -72.40178 40186 ft 448 kts 244°
2026-04-18 04:31 47.43075 -72.47889 40187 ft 448 kts 243°
2026-04-18 04:31 47.39718 -72.55639 40186 ft 448 kts 243°
2026-04-18 04:32 47.36349 -72.63397 40187 ft 449 kts 243°
2026-04-18 04:32 47.32979 -72.71133 40176 ft 449 kts 243°
2026-04-18 04:33 47.29600 -72.78868 40186 ft 449 kts 243°
2026-04-18 04:33 47.26217 -72.86590 40182 ft 449 kts 243°
2026-04-18 04:34 47.22829 -72.94303 40179 ft 449 kts 243°
2026-04-18 04:34 47.19432 -73.02015 40176 ft 449 kts 243°
2026-04-18 04:35 47.16030 -73.09715 40166 ft 449 kts 243°
2026-04-18 04:35 47.12618 -73.17421 40168 ft 450 kts 243°
2026-04-18 04:36 47.09195 -73.25126 40170 ft 450 kts 243°
2026-04-18 04:36 47.05772 -73.32810 40170 ft 450 kts 243°
2026-04-18 04:37 47.02338 -73.40496 40168 ft 450 kts 242°
2026-04-18 04:37 46.98904 -73.48162 40168 ft 450 kts 242°
2026-04-18 04:38 46.95468 -73.55811 40165 ft 450 kts 242°
2026-04-18 04:38 46.92026 -73.63452 40176 ft 450 kts 242°
2026-04-18 04:39 46.88578 -73.71087 40160 ft 450 kts 242°
2026-04-18 04:39 46.85120 -73.78720 40136 ft 450 kts 242°
2026-04-18 04:40 46.81659 -73.86340 40156 ft 450 kts 242°
2026-04-18 04:40 46.78196 -73.93945 40152 ft 451 kts 242°
2026-04-18 04:41 46.74720 -74.01557 40152 ft 450 kts 242°
2026-04-18 04:41 46.71245 -74.09144 40146 ft 450 kts 242°
2026-04-18 04:42 46.67763 -74.16728 40134 ft 450 kts 242°
2026-04-18 04:42 46.64274 -74.24306 40141 ft 451 kts 242°
2026-04-18 04:43 46.60773 -74.31889 40130 ft 451 kts 242°
2026-04-18 04:43 46.57289 -74.39414 40132 ft 451 kts 242°
2026-04-18 04:44 46.53778 -74.46977 40126 ft 451 kts 242°
2026-04-18 04:44 46.50263 -74.54530 40123 ft 452 kts 241°
2026-04-18 04:45 46.46736 -74.62089 40121 ft 452 kts 241°
2026-04-18 04:45 46.43207 -74.69628 40118 ft 452 kts 241°
2026-04-18 04:46 46.39669 -74.77166 40113 ft 452 kts 241°
2026-04-18 04:46 46.36121 -74.84707 40098 ft 453 kts 241°
2026-04-18 04:47 46.32572 -74.92231 40107 ft 453 kts 241°
2026-04-18 04:47 46.29005 -74.99770 40099 ft 454 kts 241°
2026-04-18 04:48 46.25436 -75.07294 40098 ft 454 kts 241°
2026-04-18 04:48 46.21868 -75.14794 40098 ft 453 kts 241°
2026-04-18 04:49 46.18289 -75.22299 40089 ft 454 kts 241°
2026-04-18 04:49 46.14707 -75.29792 40088 ft 454 kts 241°
2026-04-18 04:50 46.11115 -75.37286 40089 ft 454 kts 241°
2026-04-18 04:50 46.07518 -75.44769 40080 ft 454 kts 241°
2026-04-18 04:51 46.03910 -75.52253 40066 ft 454 kts 241°
2026-04-18 04:51 46.00303 -75.59716 40075 ft 455 kts 241°
2026-04-18 04:52 45.96688 -75.67175 40069 ft 453 kts 241°
2026-04-18 04:52 45.93087 -75.74582 40087 ft 451 kts 241°
2026-04-18 04:53 45.89516 -75.81915 40069 ft 451 kts 241°
2026-04-18 04:53 45.85904 -75.89347 40066 ft 451 kts 241°
2026-04-18 04:54 45.82345 -75.96687 40085 ft 451 kts 241°
2026-04-18 04:54 45.78766 -76.04080 40085 ft 451 kts 241°
2026-04-18 04:55 45.75198 -76.11463 40060 ft 451 kts 241°
2026-04-18 04:55 45.71612 -76.18894 40059 ft 449 kts 241°
2026-04-18 04:56 45.66325 -76.29854 40062 ft 445 kts 241°
2026-04-18 04:56 45.62841 -76.37084 40061 ft 445 kts 241°
2026-04-18 04:57 45.59313 -76.44415 40060 ft 445 kts 241°
2026-04-18 04:57 45.55842 -76.51637 40052 ft 445 kts 241°
2026-04-18 04:58 45.52349 -76.58916 40056 ft 444 kts 241°
2026-04-18 04:58 45.48862 -76.66193 40056 ft 444 kts 242°
2026-04-18 04:59 45.45391 -76.73453 40056 ft 442 kts 242°
2026-04-18 04:59 45.41947 -76.80668 40054 ft 441 kts 242°
2026-04-18 05:00 45.38500 -76.87882 40053 ft 441 kts 242°
2026-04-18 05:00 45.35054 -76.95087 40055 ft 441 kts 242°
2026-04-18 05:01 45.31612 -77.02298 40056 ft 441 kts 242°
2026-04-18 05:01 45.28176 -77.09512 40052 ft 441 kts 242°
2026-04-18 05:02 45.24750 -77.16713 40014 ft 438 kts 242°
2026-04-18 05:02 45.23047 -77.20273 39471 ft 435 kts 242°
2026-04-18 05:02 45.21338 -77.23805 38898 ft 433 kts 242°
2026-04-18 05:03 45.19620 -77.27314 38207 ft 433 kts 242°
2026-04-18 05:03 45.17905 -77.30833 37321 ft 435 kts 242°
2026-04-18 05:03 45.16180 -77.34369 36589 ft 437 kts 240°
2026-04-18 05:03 45.14418 -77.37887 36160 ft 441 kts 240°
2026-04-18 05:04 45.12630 -77.41452 36058 ft 448 kts 240°
2026-04-18 05:04 45.10807 -77.45087 36054 ft 453 kts 240°
2026-04-18 05:04 45.07153 -77.52363 36050 ft 454 kts 240°
2026-04-18 05:05 45.03493 -77.59648 36049 ft 455 kts 240°
2026-04-18 05:05 44.99826 -77.66930 36052 ft 455 kts 240°
2026-04-18 05:06 44.96160 -77.74192 36045 ft 453 kts 240°
2026-04-18 05:06 44.92504 -77.81417 36047 ft 452 kts 240°
2026-04-18 05:07 44.88839 -77.88642 36054 ft 453 kts 240°
2026-04-18 05:07 44.85159 -77.95847 35952 ft 449 kts 239°
2026-04-18 05:08 44.83915 -77.98156 35701 ft 444 kts 238°
2026-04-18 05:08 44.82031 -78.01610 34805 ft 447 kts 237°
2026-04-18 05:08 44.80126 -78.05112 34111 ft 453 kts 237°
2026-04-18 05:08 44.77546 -78.09867 33752 ft 468 kts 237°
2026-04-18 05:09 44.76212 -78.12327 33564 ft 470 kts 237°
2026-04-18 05:09 44.73577 -78.17175 33211 ft 471 kts 236°
2026-04-18 05:09 44.72234 -78.19644 33033 ft 472 kts 236°
2026-04-18 05:09 44.70244 -78.23304 32771 ft 472 kts 236°
2026-04-18 05:10 44.68253 -78.26959 32169 ft 470 kts 236°
2026-04-18 05:10 44.66261 -78.30617 31226 ft 472 kts 236°
2026-04-18 05:10 44.64267 -78.34272 30610 ft 467 kts 235°
2026-04-18 05:10 44.62299 -78.37874 29996 ft 463 kts 235°
2026-04-18 05:11 44.60352 -78.41433 29293 ft 458 kts 235°
2026-04-18 05:11 44.58426 -78.44948 28653 ft 452 kts 234°
2026-04-18 05:11 44.56518 -78.48430 28037 ft 447 kts 234°
2026-04-18 05:11 44.54627 -78.51876 27435 ft 442 kts 234°
2026-04-18 05:12 44.52764 -78.55266 26815 ft 438 kts 234°
2026-04-18 05:12 44.50913 -78.58631 26209 ft 434 kts 234°
2026-04-18 05:12 44.49078 -78.61965 25618 ft 430 kts 234°
2026-04-18 05:12 44.47263 -78.65256 25005 ft 426 kts 234°
2026-04-18 05:13 44.45448 -78.68544 24420 ft 423 kts 234°
2026-04-18 05:13 44.43654 -78.71793 23785 ft 421 kts 233°
2026-04-18 05:13 44.41894 -78.74975 23115 ft 417 kts 233°
2026-04-18 05:13 44.40106 -78.78203 22472 ft 412 kts 233°
2026-04-18 05:14 44.38386 -78.81305 21864 ft 407 kts 233°
2026-04-18 05:14 44.36657 -78.84421 21237 ft 403 kts 233°
2026-04-18 05:14 44.34945 -78.87502 20619 ft 400 kts 233°
2026-04-18 05:14 44.33246 -78.90556 20010 ft 396 kts 233°
2026-04-18 05:15 44.31543 -78.93615 19393 ft 393 kts 232°
2026-04-18 05:15 44.29868 -78.96621 18768 ft 390 kts 232°
2026-04-18 05:15 44.28210 -78.99593 18098 ft 387 kts 232°
2026-04-18 05:15 44.26574 -79.02494 17439 ft 383 kts 230°
2026-04-18 05:16 44.24652 -79.05084 16830 ft 379 kts 217°
2026-04-18 05:16 44.22338 -79.06814 16238 ft 377 kts 204°
2026-04-18 05:16 44.19894 -79.08080 15615 ft 373 kts 201°
2026-04-18 05:16 44.17462 -79.09285 15003 ft 369 kts 201°
2026-04-18 05:17 44.15058 -79.10482 14397 ft 365 kts 201°
2026-04-18 05:17 44.12723 -79.11652 14099 ft 353 kts 201°
2026-04-18 05:17 44.10467 -79.12785 13985 ft 337 kts 201°
2026-04-18 05:17 44.08319 -79.13865 13841 ft 321 kts 201°
2026-04-18 05:18 44.06272 -79.14896 13708 ft 306 kts 201°
2026-04-18 05:18 44.04310 -79.15884 13564 ft 293 kts 201°
2026-04-18 05:18 44.02629 -79.16731 13439 ft 282 kts 201°
2026-04-18 05:18 44.00819 -79.17641 13285 ft 273 kts 201°
2026-04-18 05:19 43.98965 -79.17975 12999 ft 273 kts 176°
2026-04-18 05:19 43.97103 -79.17451 12690 ft 272 kts 170°
2026-04-18 05:19 43.95277 -79.16836 12446 ft 268 kts 170°
2026-04-18 05:19 43.93474 -79.16234 12203 ft 267 kts 170°
2026-04-18 05:20 43.91668 -79.15635 11950 ft 266 kts 170°
2026-04-18 05:20 43.89867 -79.15041 11687 ft 266 kts 170°
2026-04-18 05:20 43.88071 -79.14454 11444 ft 265 kts 170°
2026-04-18 05:20 43.86281 -79.13871 11189 ft 264 kts 170°
2026-04-18 05:21 43.84494 -79.13293 10930 ft 263 kts 170°
2026-04-18 05:21 43.82715 -79.12721 10687 ft 262 kts 170°
2026-04-18 05:21 43.80939 -79.12154 10438 ft 261 kts 170°
2026-04-18 05:21 43.79179 -79.11598 10235 ft 260 kts 171°
2026-04-18 05:22 43.77414 -79.11044 10085 ft 259 kts 171°
2026-04-18 05:22 43.75631 -79.10479 9885 ft 265 kts 170°
2026-04-18 05:22 43.73822 -79.09891 9655 ft 271 kts 170°
2026-04-18 05:22 43.71963 -79.09308 9548 ft 276 kts 173°
2026-04-18 05:23 43.70061 -79.09200 9535 ft 273 kts 188°
2026-04-18 05:23 43.68252 -79.09931 9533 ft 271 kts 208°
2026-04-18 05:23 43.66808 -79.11561 9533 ft 271 kts 230°
2026-04-18 05:23 43.65979 -79.13896 9519 ft 275 kts 253°
2026-04-18 05:24 43.65953 -79.16553 9317 ft 281 kts 278°
2026-04-18 05:24 43.66480 -79.19163 9056 ft 283 kts 283°
2026-04-18 05:24 43.67063 -79.21749 8809 ft 282 kts 283°
2026-04-18 05:24 43.67621 -79.24331 8557 ft 280 kts 282°
2026-04-18 05:25 43.68158 -79.26912 8311 ft 279 kts 282°
2026-04-18 05:25 43.68681 -79.29489 8056 ft 278 kts 281°
2026-04-18 05:25 43.69193 -79.32049 7814 ft 276 kts 281°
2026-04-18 05:25 43.69700 -79.34604 7568 ft 275 kts 281°
2026-04-18 05:26 43.70202 -79.37149 7326 ft 274 kts 281°
2026-04-18 05:26 43.70702 -79.39694 7085 ft 273 kts 281°
2026-04-18 05:26 43.71198 -79.42224 6895 ft 272 kts 281°
2026-04-18 05:26 43.71693 -79.44742 6773 ft 271 kts 280°
2026-04-18 05:27 43.72186 -79.47260 6672 ft 270 kts 280°
2026-04-18 05:27 43.72672 -79.49757 6544 ft 269 kts 280°
2026-04-18 05:27 43.73170 -79.52249 6427 ft 270 kts 282°
2026-04-18 05:27 43.74010 -79.54592 6298 ft 278 kts 302°
2026-04-18 05:28 43.75340 -79.56558 6179 ft 281 kts 311°
2026-04-18 05:28 43.76777 -79.58405 6025 ft 282 kts 312°
2026-04-18 05:28 43.78211 -79.60237 5775 ft 280 kts 311°
2026-04-18 05:28 43.79634 -79.62072 5531 ft 280 kts 311°
2026-04-18 05:29 43.81051 -79.63913 5347 ft 279 kts 311°
2026-04-18 05:29 43.82442 -79.65728 5238 ft 278 kts 311°
2026-04-18 05:29 43.83860 -79.67581 5108 ft 276 kts 310°
2026-04-18 05:29 43.85255 -79.69409 4982 ft 276 kts 311°
2026-04-18 05:30 43.86651 -79.71240 4866 ft 276 kts 310°
2026-04-18 05:30 43.88029 -79.73043 4728 ft 276 kts 310°
2026-04-18 05:30 43.89436 -79.74894 4610 ft 275 kts 310°
2026-04-18 05:30 43.90804 -79.76699 4482 ft 275 kts 310°
2026-04-18 05:31 43.92188 -79.78527 4351 ft 275 kts 311°
2026-04-18 05:31 43.93576 -79.80350 4247 ft 276 kts 310°
2026-04-18 05:31 43.94917 -79.82245 4121 ft 272 kts 301°
2026-04-18 05:31 43.95725 -79.84515 3994 ft 258 kts 276°
2026-04-18 05:32 43.95735 -79.86919 3865 ft 246 kts 252°
2026-04-18 05:32 43.95039 -79.89025 3741 ft 239 kts 229°
2026-04-18 05:32 43.93807 -79.90529 3610 ft 235 kts 208°
2026-04-18 05:32 43.92264 -79.91219 3497 ft 236 kts 187°
2026-04-18 05:33 43.90632 -79.90998 3375 ft 238 kts 166°
2026-04-18 05:33 43.89166 -79.89903 3258 ft 244 kts 148°
2026-04-18 05:33 43.87835 -79.88426 3127 ft 245 kts 145°
2026-04-18 05:33 43.86527 -79.86918 3000 ft 244 kts 146°
2026-04-18 05:34 43.85245 -79.85436 2897 ft 234 kts 143°
2026-04-18 05:34 43.84107 -79.83927 2864 ft 218 kts 140°
2026-04-18 05:34 43.83075 -79.82502 2865 ft 201 kts 141°
2026-04-18 05:34 43.82119 -79.81199 2858 ft 184 kts 142°
2026-04-18 05:35 43.81235 -79.80009 2867 ft 174 kts 142°
2026-04-18 05:35 43.80360 -79.78858 2874 ft 174 kts 142°
2026-04-18 05:35 43.79482 -79.77707 2877 ft 174 kts 142°
2026-04-18 05:35 43.78644 -79.76596 2866 ft 156 kts 142°
2026-04-18 05:36 43.77881 -79.75585 2888 ft 151 kts 142°
2026-04-18 05:36 43.77111 -79.74581 2881 ft 153 kts 142°
2026-04-18 05:36 43.76340 -79.73574 2802 ft 151 kts 142°
2026-04-18 05:36 43.75613 -79.72617 2575 ft 139 kts 142°
2026-04-18 05:37 43.74934 -79.71723 2345 ft 132 kts 141°
2026-04-18 05:37 43.74276 -79.70864 2033 ft 130 kts 141°
2026-04-18 05:37 43.73630 -79.70019 1794 ft 122 kts 139°
2026-04-18 05:37 43.73029 -79.69231 1676 ft 118 kts 139°
2026-04-18 05:38 43.72432 -79.68451 1494 ft 118 kts 139°
2026-04-18 05:38 43.71829 -79.67661 1326 ft 121 kts 139°
2026-04-18 05:38 43.71202 -79.66869 1156 ft 123 kts 139°
2026-04-18 05:38 43.70570 -79.66046 990 ft 126 kts 135°
2026-04-18 05:39 43.69948 -79.65188 797 ft 126 kts 141°
2026-04-18 05:39 43.69306 -79.64368 634 ft 128 kts 136°
2026-04-18 05:39 43.68679 -79.63536 579 ft 113 kts 137°
2026-04-18 05:39 43.68193 -79.62908 579 ft 82 kts 136°
2026-04-18 05:40 43.67989 -79.62595 582 ft 30 kts 120°
2026-04-18 05:40 43.67916 -79.62342 580 ft 27 kts 106°
2026-04-18 05:40 43.67902 -79.62141 575 ft 20 kts 67°
2026-04-18 05:40 43.68002 -79.62034 576 ft 19 kts 16°
2026-04-18 05:41 43.68127 -79.61977 574 ft 16 kts 13°
2026-04-18 05:41 43.68170 -79.61982 573 ft 0 kts 350°